WD9GET Weather Reports


Display with metric or nautical units.
time (UTC)temp
F
wind
direction
speed
MPH
gust
MPH
rain 1hr
in
rain 24hr
in
rain mn
in
humidity
%
barometer
mb
20260831022535 79 11 1.0 2.0 0.00 0.00 0.00 91 1013.5
20260831022527 79 344 1.0 2.0 0.00 0.00 0.00 91 1013.5
20260831022435 79 40 1.0 2.0 0.00 0.00 0.00 91 1013.5
20260831022340 79 34 1.0 2.0 0.00 0.00 0.00 91 1013.5
20260831022240 79 353 0.0 1.0 0.00 0.00 0.00 90 1013.3
20260831022236 79 34 0.0 2.0 0.00 0.00 0.00 91 1013.5
20260831022135 79 36 0.0 2.0 0.00 0.00 0.00 90 1013.3
20260831022125 79 348 0.0 1.0 0.00 0.00 0.00 90 1013.3
20260831021935 79 30 0.0 1.0 0.00 0.00 0.00 90 1013.3
20260831021828 79 0 0.0 1.0 0.00 0.00 0.00 90 1013.2
20260831021730 79 9 0.0 1.0 0.00 0.00 0.00 90 1013.2
20260831021620 79 59 0.0 2.0 0.00 0.00 0.00 90 1013.2
20260831021525 80 0 0.0 2.0 0.00 0.00 0.00 90 1013.2
20260831021417 80 22 0.0 2.0 0.00 0.00 0.00 88 1013.1
20260831021320 80 354 0.0 2.0 0.00 0.00 0.00 88 1013.1
20260831021208 80 42 0.0 2.0 0.00 0.00 0.00 88 1013.1
20260831021107 80 73 0.0 2.0 0.00 0.00 0.00 88 1013.1
20260831021015 80 40 0.0 2.0 0.00 0.00 0.00 88 1013.1
20260831021007 80 290 0.0 2.0 0.00 0.00 0.00 88 1013.1
20260831020908 80 60 0.0 2.0 0.00 0.00 0.00 88 1013.1
20260831020805 80 347 0.0 2.0 0.00 0.00 0.00 88 1013.1
20260831020736 80 0 0.0 2.0 0.00 0.00 0.00 88 1013.1
20260831020655 80 354 0.0 2.0 0.00 0.00 0.00 88 1013.1
20260831020621 80 0 0.0 2.0 0.00 0.00 0.00 88 1013.1
20260831020445 80 0 0.0 2.0 0.00 0.00 0.00 88 1013.1
20260831020340 80 26 0.0 2.0 0.00 0.00 0.00 88 1013.1
20260831020230 80 345 0.0 2.0 0.00 0.00 0.00 88 1013.1
20260831020121 80 0 0.0 2.0 0.00 0.00 0.00 88 1013.1
20260831020033 80 14 0.0 2.0 0.00 0.00 0.00 87 1013.1
20260831020029 80 26 0.0 2.0 0.00 0.00 0.00 87 1013.1
20260831015925 81 16 0.0 2.0 0.00 0.00 0.00 87 1013.1
20260831015812 81 59 0.0 2.0 0.00 0.00 0.00 87 1013.1
20260831015711 81 97 0.0 2.0 0.00 0.00 0.00 87 1013.1
20260831015614 81 42 0.0 1.0 0.00 0.00 0.00 87 1013.1
20260831015515 81 265 0.0 1.0 0.00 0.00 0.00 87 1013.1
20260831015510 81 255 0.0 1.0 0.00 0.00 0.00 87 1013.1
20260831015402 81 9 0.0 1.0 0.00 0.00 0.00 87 1013.1
20260831015306 81 354 0.0 2.0 0.00 0.00 0.00 86 1013.1
20260831015208 81 303 0.0 2.0 0.00 0.00 0.00 86 1013.1
20260831015057 81 6 0.0 2.0 0.00 0.00 0.00 86 1013.1
20260831015007 81 11 0.0 2.0 0.00 0.00 0.00 86 1013.1
20260831014953 81 30 0.0 2.0 0.00 0.00 0.00 86 1013.1
20260831014850 81 6 0.0 2.0 0.00 0.00 0.00 85 1013.1
20260831014750 81 311 0.0 2.0 0.00 0.00 0.00 85 1013.1
20260831014652 81 12 0.0 2.0 0.00 0.00 0.00 85 1013.1
20260831014550 81 334 0.0 2.0 0.00 0.00 0.00 85 1013.1
20260831014503 81 0 0.0 2.0 0.00 0.00 0.00 85 1013.1
20260831014453 81 325 0.0 2.0 0.00 0.00 0.00 85 1013.1
20260831014349 82 8 0.0 2.0 0.00 0.00 0.00 85 1013.1
20260831014242 82 14 0.0 2.0 0.00 0.00 0.00 85 1013.1
20260831014148 82 348 1.0 2.0 0.00 0.00 0.00 85 1013.1
20260831014044 82 285 1.0 2.0 0.00 0.00 0.00 85 1013.1
20260831014003 82 0 1.0 2.0 0.00 0.00 0.00 85 1013.1
20260831013932 82 65 1.0 2.0 0.00 0.00 0.00 85 1013.1
20260831013817 82 352 1.0 2.0 0.00 0.00 0.00 85 1013.1
20260831013720 82 319 1.0 2.0 0.00 0.00 0.00 85 1013.2
20260831013614 82 344 1.0 2.0 0.00 0.00 0.00 84 1013.1
20260831013520 82 77 1.0 2.0 0.00 0.00 0.00 84 1013.1
20260831013457 82 0 1.0 2.0 0.00 0.00 0.00 84 1013.1
20260831013411 82 134 1.0 2.0 0.00 0.00 0.00 84 1013.1
20260831013303 82 46 0.0 2.0 0.00 0.00 0.00 84 1013.1
20260831013203 82 59 0.0 2.0 0.00 0.00 0.00 84 1013.1
20260831013103 82 50 0.0 2.0 0.00 0.00 0.00 84 1013.1
20260831012952 82 108 0.0 2.0 0.00 0.00 0.00 84 1013.1
20260831012912 82 42 0.0 2.0 0.00 0.00 0.00 84 1013.1
20260831012759 82 0 0.0 2.0 0.00 0.00 0.00 84 1013.1
20260831012658 82 0 0.0 2.0 0.00 0.00 0.00 84 1013.1
20260831012559 82 0 0.0 2.0 0.00 0.00 0.00 83 1013.2
20260831012458 82 0 0.0 1.0 0.00 0.00 0.00 83 1013.2
20260831012351 82 0 0.0 1.0 0.00 0.00 0.00 83 1013.2
20260831012239 83 54 0.0 1.0 0.00 0.00 0.00 82 1013.2
20260831012147 83 50 0.0 1.0 0.00 0.00 0.00 82 1013.2
20260831012039 83 73 0.0 1.0 0.00 0.00 0.00 82 1013.1
20260831011947 83 86 0.0 1.0 0.00 0.00 0.00 82 1013.1
20260831011938 83 0 0.0 1.0 0.00 0.00 0.00 82 1013.1
20260831011837 83 0 0.0 1.0 0.00 0.00 0.00 81 1013.1
20260831011741 83 67 0.0 1.0 0.00 0.00 0.00 81 1013.1
20260831011630 83 237 0.0 1.0 0.00 0.00 0.00 81 1013.1
20260831011528 83 37 0.0 2.0 0.00 0.00 0.00 81 1013.1
20260831011446 83 0 0.0 2.0 0.00 0.00 0.00 81 1013.1
20260831011416 83 55 0.0 2.0 0.00 0.00 0.00 81 1013.1
20260831011316 83 36 0.0 2.0 0.00 0.00 0.00 81 1013.1
20260831011215 83 0 0.0 2.0 0.00 0.00 0.00 81 1013.1
20260831011120 83 0 0.0 2.0 0.00 0.00 0.00 81 1013.1
20260831010946 84 68 0.0 2.0 0.00 0.00 0.00 80 1013.1
20260831010853 84 70 0.0 2.0 0.00 0.00 0.00 80 1013.1
20260831010741 84 95 0.0 2.0 0.00 0.00 0.00 80 1013.1
20260831010646 84 81 0.0 2.0 0.00 0.00 0.00 80 1013.1
20260831010542 84 349 0.0 1.0 0.00 0.00 0.00 80 1013.1
20260831010449 84 118 0.0 2.0 0.00 0.00 0.00 80 1013.1
20260831010445 84 339 1.0 3.0 0.00 0.00 0.00 79 1013.0
20260831010426 84 179 0.0 2.0 0.00 0.00 0.00 80 1013.1
20260831010324 84 93 0.0 2.0 0.00 0.00 0.00 79 1013.1
20260831010226 84 0 0.0 3.0 0.00 0.00 0.00 79 1013.1
20260831010217 84 339 1.0 3.0 0.00 0.00 0.00 79 1013.0
20260831010127 84 28 0.0 3.0 0.00 0.00 0.00 79 1013.1
20260831010052 84 52 0.0 3.0 0.00 0.00 0.00 79 1013.1
20260831005926 84 44 1.0 3.0 0.00 0.00 0.00 79 1013.0
20260831005812 84 59 1.0 3.0 0.00 0.00 0.00 79 1013.0
20260831005713 84 31 1.0 3.0 0.00 0.00 0.00 79 1013.0
20260831005613 84 0 1.0 3.0 0.00 0.00 0.00 79 1013.0
20260831005515 84 0 1.0 3.0 0.00 0.00 0.00 79 1013.0
20260831005448 84 275 1.0 3.0 0.00 0.00 0.00 78 1013.0
20260831005443 84 43 1.0 3.0 0.00 0.00 0.00 78 1013.0
20260831005416 84 275 1.0 3.0 0.00 0.00 0.00 78 1013.0
20260831005312 85 105 1.0 4.0 0.00 0.00 0.00 78 1013.0
20260831005209 85 90 1.0 4.0 0.00 0.00 0.00 78 1013.0
20260831005203 85 191 1.0 4.0 0.00 0.00 0.00 78 1013.0
20260831005104 85 98 1.0 4.0 0.00 0.00 0.00 78 1013.0
20260831005049 85 83 1.0 4.0 0.00 0.00 0.00 78 1013.0
20260831004854 85 43 1.0 4.0 0.00 0.00 0.00 78 1013.0
20260831004754 85 81 1.0 4.0 0.00 0.00 0.00 78 1013.0
20260831004657 85 85 1.0 4.0 0.00 0.00 0.00 78 1013.0
20260831004552 85 22 1.0 4.0 0.00 0.00 0.00 78 1013.0
20260831004452 85 304 1.0 4.0 0.00 0.00 0.00 77 1013.0
20260831004443 85 280 1.0 4.0 0.00 0.00 0.00 77 1013.0
20260831004400 85 73 1.0 4.0 0.00 0.00 0.00 77 1013.0
20260831004251 85 100 1.0 4.0 0.00 0.00 0.00 77 1012.9
20260831004151 85 70 2.0 5.0 0.00 0.00 0.00 77 1012.9
20260831004053 85 128 2.0 5.0 0.00 0.00 0.00 76 1012.9
20260831003944 85 14 2.0 5.0 0.00 0.00 0.00 76 1012.9
20260831003939 85 162 2.0 5.0 0.00 0.00 0.00 76 1012.9
20260831003833 85 183 2.0 5.0 0.00 0.00 0.00 76 1012.9
20260831003730 85 100 2.0 5.0 0.00 0.00 0.00 76 1012.9
20260831003625 85 70 2.0 5.0 0.00 0.00 0.00 76 1012.9
20260831003537 86 70 2.0 5.0 0.00 0.00 0.00 76 1012.9
20260831003441 86 99 2.0 5.0 0.00 0.00 0.00 76 1012.9
20260831003429 86 87 2.0 5.0 0.00 0.00 0.00 76 1012.9
20260831003315 86 110 2.0 5.0 0.00 0.00 0.00 76 1012.9
20260831003210 86 69 2.0 5.0 0.00 0.00 0.00 75 1012.9
20260831003107 86 93 2.0 5.0 0.00 0.00 0.00 75 1012.9
20260831003001 86 206 2.0 5.0 0.00 0.00 0.00 75 1012.9
20260831002941 86 18 2.0 5.0 0.00 0.00 0.00 75 1012.9
20260831002851 86 92 2.0 5.0 0.00 0.00 0.00 75 1012.9
20260831002751 86 154 2.0 5.0 0.00 0.00 0.00 75 1012.9
20260831002651 86 93 2.0 5.0 0.00 0.00 0.00 74 1012.9
20260831002553 86 84 2.0 5.0 0.00 0.00 0.00 74 1012.9
20260831002504 86 15 2.0 5.0 0.00 0.00 0.00 74 1012.9
20260831002435 86 77 2.0 5.0 0.00 0.00 0.00 74 1012.9
20260831002349 86 80 2.0 6.0 0.00 0.00 0.00 74 1012.9
20260831002240 86 88 2.0 6.0 0.00 0.00 0.00 73 1012.9
20260831002140 87 84 2.0 6.0 0.00 0.00 0.00 73 1012.9
20260831002039 87 84 2.0 6.0 0.00 0.00 0.00 73 1013.0
20260831001931 87 97 2.0 6.0 0.00 0.00 0.00 73 1013.0
20260831001917 87 91 2.0 6.0 0.00 0.00 0.00 73 1013.0
20260831001830 87 105 2.0 6.0 0.00 0.00 0.00 73 1013.0
20260831001730 87 105 2.0 6.0 0.00 0.00 0.00 73 1013.0
20260831001630 87 196 2.0 6.0 0.00 0.00 0.00 72 1013.0
20260831001536 87 278 2.0 6.0 0.00 0.00 0.00 72 1013.0
20260831001428 87 88 2.0 6.0 0.00 0.00 0.00 72 1013.0
20260831001414 87 205 2.0 6.0 0.00 0.00 0.00 72 1013.0
20260831001327 87 73 2.0 6.0 0.00 0.00 0.00 72 1013.0
20260831001228 87 94 2.0 6.0 0.00 0.00 0.00 72 1013.0
20260831001125 87 74 2.0 6.0 0.00 0.00 0.00 72 1013.0
20260831001036 87 189 2.0 6.0 0.00 0.00 0.00 71 1013.0
20260831000929 88 108 2.0 6.0 0.00 0.00 0.00 71 1012.9
20260831000915 88 205 2.0 6.0 0.00 0.00 0.00 71 1012.9
20260831000821 88 8 2.0 6.0 0.00 0.00 0.00 71 1012.9
20260831000722 88 100 2.0 6.0 0.00 0.00 0.00 71 1012.9
20260831000628 88 88 2.0 6.0 0.00 0.00 0.00 71 1013.0
20260831000518 88 311 2.0 6.0 0.00 0.00 0.00 71 1013.0
20260831000415 88 98 2.0 6.0 0.00 0.00 0.00 71 1013.0
20260831000320 88 78 2.0 6.0 0.00 0.00 0.00 71 1013.0
20260831000159 88 76 2.0 6.0 0.00 0.00 0.00 70 1013.0
20260831000053 88 65 2.0 6.0 0.00 0.00 0.00 70 1013.0
20260830235951 88 94 2.0 6.0 0.00 0.00 0.00 70 1012.9
20260830235914 88 81 2.0 6.0 0.00 0.00 0.00 70 1012.9
20260830235851 89 58 2.0 6.0 0.00 0.00 0.00 69 1012.9
20260830235752 89 122 2.0 6.0 0.00 0.00 0.00 69 1012.9
20260830235656 89 87 2.0 5.0 0.00 0.00 0.00 68 1012.9
20260830235552 89 76 2.0 5.0 0.00 0.00 0.00 68 1012.9
20260830235452 89 166 2.0 5.0 0.00 0.00 0.00 68 1012.9
20260830235414 89 167 2.0 5.0 0.00 0.00 0.00 68 1012.9
20260830235352 89 71 2.0 5.0 0.00 0.00 0.00 68 1013.0
20260830235259 89 120 2.0 5.0 0.00 0.00 0.00 68 1013.0
20260830235157 89 60 2.0 5.0 0.00 0.00 0.00 67 1012.9
20260830235052 89 72 2.0 5.0 0.00 0.00 0.00 67 1012.9
20260830234957 89 153 2.0 6.0 0.00 0.00 0.00 67 1012.9
20260830234915 89 85 2.0 6.0 0.00 0.00 0.00 67 1012.9
20260830234852 89 105 2.0 6.0 0.00 0.00 0.00 67 1012.9
20260830234757 89 130 2.0 6.0 0.00 0.00 0.00 67 1012.9
20260830234646 89 65 2.0 6.0 0.00 0.00 0.00 67 1012.9
20260830234546 89 108 2.0 6.0 0.00 0.00 0.00 67 1012.9
20260830234440 89 97 2.0 6.0 0.00 0.00 0.00 66 1013.0
20260830234408 89 318 2.0 6.0 0.00 0.00 0.00 66 1013.0
20260830234334 89 117 2.0 6.0 0.00 0.00 0.00 66 1013.0
20260830234234 90 146 2.0 6.0 0.00 0.00 0.00 65 1013.0
20260830234127 90 115 2.0 6.0 0.00 0.00 0.00 65 1013.0
20260830234028 90 118 2.0 6.0 0.00 0.00 0.00 65 1013.0
20260830233915 90 109 2.0 6.0 0.00 0.00 0.00 65 1013.0
20260830233908 90 135 2.0 6.0 0.00 0.00 0.00 65 1013.0
20260830233816 90 280 3.0 9.0 0.00 0.00 0.00 65 1012.9
20260830233716 90 84 3.0 9.0 0.00 0.00 0.00 65 1012.9
20260830233607 90 98 3.0 9.0 0.00 0.00 0.00 65 1012.9
20260830233501 90 74 3.0 9.0 0.00 0.00 0.00 65 1012.9
20260830233406 90 83 3.0 9.0 0.00 0.00 0.00 65 1012.9
20260830233358 90 99 3.0 9.0 0.00 0.00 0.00 65 1012.9
20260830233258 90 104 3.0 9.0 0.00 0.00 0.00 65 1012.9
20260830233158 90 78 2.0 9.0 0.00 0.00 0.00 65 1012.9
20260830233049 90 66 3.0 9.0 0.00 0.00 0.00 63 1012.9
20260830232949 90 159 3.0 9.0 0.00 0.00 0.00 63 1012.9
20260830232905 90 88 2.0 9.0 0.00 0.00 0.00 63 1012.9
20260830232840 90 69 2.0 9.0 0.00 0.00 0.00 63 1012.9
20260830232740 90 171 2.0 6.0 0.00 0.00 0.00 63 1012.9
20260830232640 90 94 2.0 6.0 0.00 0.00 0.00 63 1012.9
20260830232535 90 235 2.0 7.0 0.00 0.00 0.00 63 1012.9
20260830232425 90 91 2.0 7.0 0.00 0.00 0.00 63 1012.9
20260830232403 90 117 2.0 7.0 0.00 0.00 0.00 63 1012.9
20260830232319 90 6 2.0 7.0 0.00 0.00 0.00 63 1012.9
20260830232214 90 101 2.0 7.0 0.00 0.00 0.00 63 1012.9
20260830232119 90 298 2.0 7.0 0.00 0.00 0.00 63 1012.9
20260830232007 91 112 2.0 9.0 0.00 0.00 0.00 63 1012.8
20260830231905 91 155 2.0 9.0 0.00 0.00 0.00 63 1012.8
20260830231758 91 174 3.0 9.0 0.00 0.00 0.00 63 1012.8
20260830231655 91 106 3.0 9.0 0.00 0.00 0.00 61 1012.9
20260830231556 91 171 3.0 9.0 0.00 0.00 0.00 61 1012.9
20260830231454 91 118 3.0 9.0 0.00 0.00 0.00 61 1012.9
20260830231356 91 166 3.0 9.0 0.00 0.00 0.00 61 1012.9
20260830231346 91 106 3.0 9.0 0.00 0.00 0.00 61 1012.9
20260830231238 91 66 2.0 9.0 0.00 0.00 0.00 61 1012.9
20260830231134 91 131 2.0 9.0 0.00 0.00 0.00 61 1012.9
20260830231032 91 90 2.0 9.0 0.00 0.00 0.00 62 1012.9
20260830230931 91 77 2.0 6.0 0.00 0.00 0.00 62 1012.9
20260830230857 91 81 2.0 6.0 0.00 0.00 0.00 62 1012.9
20260830230828 91 109 2.0 6.0 0.00 0.00 0.00 62 1012.9
20260830230729 91 149 2.0 6.0 0.00 0.00 0.00 62 1012.9
20260830230629 91 88 2.0 6.0 0.00 0.00 0.00 62 1012.8
20260830230529 91 117 2.0 6.0 0.00 0.00 0.00 62 1012.8
20260830230428 91 78 2.0 6.0 0.00 0.00 0.00 61 1012.9
20260830230357 91 216 2.0 6.0 0.00 0.00 0.00 61 1012.9
20260830230328 91 79 2.0 6.0 0.00 0.00 0.00 61 1012.9
20260830230222 91 155 3.0 8.0 0.00 0.00 0.00 61 1012.9
20260830230113 91 109 3.0 9.0 0.00 0.00 0.00 61 1012.9
20260830230017 91 139 3.0 9.0 0.00 0.00 0.00 61 1012.9
20260830225909 91 93 3.0 9.0 0.00 0.00 0.00 61 1012.9
20260830225857 91 143 3.0 9.0 0.00 0.00 0.00 61 1012.9
20260830225808 91 260 3.0 9.0 0.00 0.00 0.00 61 1012.9
20260830225708 91 62 3.0 9.0 0.00 0.00 0.00 61 1012.9
20260830225608 91 92 3.0 9.0 0.00 0.00 0.00 61 1012.9
20260830225520 91 189 3.0 9.0 0.00 0.00 0.00 61 1012.9
20260830225356 91 87 4.0 9.0 0.00 0.00 0.00 61 1012.9
20260830225256 91 278 4.0 9.0 0.00 0.00 0.00 61 1012.9
20260830225155 91 82 3.0 9.0 0.00 0.00 0.00 61 1012.9
20260830225055 91 55 3.0 8.0 0.00 0.00 0.00 61 1012.9
20260830224954 92 202 3.0 8.0 0.00 0.00 0.00 61 1012.8
20260830224854 92 78 3.0 8.0 0.00 0.00 0.00 61 1012.8
20260830224841 92 155 3.0 8.0 0.00 0.00 0.00 61 1012.8
20260830224737 92 101 3.0 8.0 0.00 0.00 0.00 60 1012.9
20260830224631 92 95 3.0 8.0 0.00 0.00 0.00 60 1012.9
20260830224529 92 153 3.0 8.0 0.00 0.00 0.00 60 1012.8
20260830224429 92 81 3.0 8.0 0.00 0.00 0.00 60 1012.8
20260830224348 92 181 3.0 8.0 0.00 0.00 0.00 59 1012.9
20260830224317 92 96 3.0 8.0 0.00 0.00 0.00 59 1012.9
20260830224217 92 7 3.0 8.0 0.00 0.00 0.00 59 1012.9
20260830224121 92 255 3.0 8.0 0.00 0.00 0.00 59 1012.9
20260830224014 92 44 3.0 9.0 0.00 0.00 0.00 59 1012.9
20260830223907 92 147 3.0 9.0 0.00 0.00 0.00 60 1012.9
20260830223849 92 136 3.0 9.0 0.00 0.00 0.00 60 1012.9
20260830223806 92 99 3.0 9.0 0.00 0.00 0.00 60 1012.9
20260830223706 92 208 3.0 9.0 0.00 0.00 0.00 59 1012.9
20260830223600 92 188 3.0 9.0 0.00 0.00 0.00 59 1012.9
20260830223456 92 137 3.0 9.0 0.00 0.00 0.00 58 1012.9
20260830223354 92 75 3.0 9.0 0.00 0.00 0.00 58 1012.9
20260830223348 92 70 3.0 9.0 0.00 0.00 0.00 58 1012.9
20260830223250 92 76 4.0 9.0 0.00 0.00 0.00 58 1012.9
20260830223151 92 150 4.0 9.0 0.00 0.00 0.00 58 1012.9
20260830223049 92 108 3.0 7.0 0.00 0.00 0.00 58 1012.9
20260830222949 92 135 3.0 7.0 0.00 0.00 0.00 58 1012.9
20260830222851 92 148 3.0 7.0 0.00 0.00 0.00 57 1012.9
20260830222739 92 140 3.0 7.0 0.00 0.00 0.00 57 1012.9
20260830222617 92 56 3.0 6.0 0.00 0.00 0.00 57 1012.9
20260830222523 92 105 3.0 6.0 0.00 0.00 0.00 58 1012.8
20260830222410 92 126 3.0 6.0 0.00 0.00 0.00 58 1012.8
20260830222337 92 93 3.0 6.0 0.00 0.00 0.00 58 1012.8
20260830222306 92 88 3.0 6.0 0.00 0.00 0.00 58 1012.8
20260830222203 92 110 3.0 9.0 0.00 0.00 0.00 58 1012.8
20260830222103 92 51 3.0 10.0 0.00 0.00 0.00 58 1012.8
20260830222049 92 121 4.0 10.0 0.00 0.00 0.00 58 1012.8
20260830222000 92 70 4.0 10.0 0.00 0.00 0.00 58 1012.8
20260830221937 92 157 4.0 10.0 0.00 0.00 0.00 58 1012.8
20260830221747 92 100 4.0 10.0 0.00 0.00 0.00 58 1012.8
20260830221647 92 161 4.0 10.0 0.00 0.00 0.00 58 1012.8
20260830221548 92 164 4.0 10.0 0.00 0.00 0.00 58 1012.8
20260830221444 92 68 4.0 10.0 0.00 0.00 0.00 57 1012.8
20260830221346 92 140 4.0 10.0 0.00 0.00 0.00 57 1012.8
20260830221330 92 130 4.0 10.0 0.00 0.00 0.00 57 1012.8
20260830221239 93 80 4.0 10.0 0.00 0.00 0.00 56 1012.8
20260830221135 93 75 4.0 10.0 0.00 0.00 0.00 56 1012.8
20260830221048 93 82 4.0 9.0 0.00 0.00 0.00 56 1012.8
20260830221026 93 97 4.0 9.0 0.00 0.00 0.00 56 1012.8
20260830220936 93 98 4.0 9.0 0.00 0.00 0.00 56 1012.8
20260830220822 93 100 4.0 9.0 0.00 0.00 0.00 56 1012.8
20260830220717 93 305 4.0 9.0 0.00 0.00 0.00 56 1012.8
20260830220614 93 72 4.0 9.0 0.00 0.00 0.00 57 1012.8
20260830220459 93 270 4.0 9.0 0.00 0.00 0.00 57 1012.8
20260830220400 93 78 4.0 9.0 0.00 0.00 0.00 56 1012.8
20260830220331 93 117 4.0 9.0 0.00 0.00 0.00 56 1012.8
20260830220300 93 65 4.0 9.0 0.00 0.00 0.00 56 1012.8
20260830220153 93 108 4.0 10.0 0.00 0.00 0.00 56 1012.8
20260830220053 93 88 4.0 11.0 0.00 0.00 0.00 56 1012.8
20260830215948 93 105 4.0 11.0 0.00 0.00 0.00 56 1012.8
20260830215851 93 94 4.0 11.0 0.00 0.00 0.00 56 1012.8
20260830215832 93 207 4.0 11.0 0.00 0.00 0.00 56 1012.8
20260830215741 93 101 4.0 11.0 0.00 0.00 0.00 56 1012.7
20260830215641 93 109 4.0 11.0 0.00 0.00 0.00 56 1012.7
20260830215542 93 68 4.0 11.0 0.00 0.00 0.00 56 1012.7
20260830215438 93 107 4.0 11.0 0.00 0.00 0.00 56 1012.7
20260830215340 93 103 4.0 11.0 0.00 0.00 0.00 56 1012.7
20260830215325 93 55 4.0 11.0 0.00 0.00 0.00 56 1012.7
20260830215237 93 83 4.0 11.0 0.00 0.00 0.00 56 1012.7
20260830215142 93 79 3.0 10.0 0.00 0.00 0.00 56 1012.7
20260830215034 93 78 3.0 10.0 0.00 0.00 0.00 56 1012.7
20260830214933 93 186 3.0 10.0 0.00 0.00 0.00 56 1012.7
20260830214827 93 145 3.0 10.0 0.00 0.00 0.00 56 1012.7
20260830214726 93 102 3.0 10.0 0.00 0.00 0.00 56 1012.7
20260830214626 94 89 3.0 10.0 0.00 0.00 0.00 56 1012.7
20260830214526 94 93 3.0 10.0 0.00 0.00 0.00 56 1012.7
20260830214426 94 1 3.0 10.0 0.00 0.00 0.00 56 1012.7
20260830214324 94 113 3.0 10.0 0.00 0.00 0.00 56 1012.7
20260830214224 94 101 3.0 7.0 0.00 0.00 0.00 55 1012.7
20260830214121 94 55 3.0 9.0 0.00 0.00 0.00 56 1012.7
20260830214014 94 75 3.0 9.0 0.00 0.00 0.00 55 1012.7
20260830213914 94 255 3.0 9.0 0.00 0.00 0.00 55 1012.7
20260830213823 94 179 3.0 9.0 0.00 0.00 0.00 56 1012.7
20260830213815 94 210 3.0 9.0 0.00 0.00 0.00 56 1012.7
20260830213715 94 165 3.0 9.0 0.00 0.00 0.00 56 1012.7
20260830213617 94 229 3.0 9.0 0.00 0.00 0.00 56 1012.7
20260830213517 94 176 3.0 9.0 0.00 0.00 0.00 56 1012.8
20260830213408 94 75 3.0 14.0 0.00 0.00 0.00 56 1012.8
20260830213319 94 76 3.0 14.0 0.00 0.00 0.00 56 1012.8
20260830213305 94 99 3.0 14.0 0.00 0.00 0.00 56 1012.8
20260830213157 94 72 3.0 14.0 0.00 0.00 0.00 56 1012.8
20260830213057 94 176 3.0 14.0 0.00 0.00 0.00 55 1012.9
20260830212956 94 60 3.0 14.0 0.00 0.00 0.00 55 1012.9
20260830212841 94 72 3.0 14.0 0.00 0.00 0.00 55 1012.9
20260830212810 94 145 3.0 14.0 0.00 0.00 0.00 55 1012.9
20260830212727 94 111 3.0 14.0 0.00 0.00 0.00 55 1012.9
20260830212620 94 56 3.0 14.0 0.00 0.00 0.00 55 1012.9
20260830212521 94 76 4.0 14.0 0.00 0.00 0.00 55 1012.9
20260830212422 94 102 4.0 9.0 0.00 0.00 0.00 55 1012.9
20260830212321 94 75 4.0 9.0 0.00 0.00 0.00 55 1012.9
20260830212308 94 114 4.0 9.0 0.00 0.00 0.00 55 1012.9
20260830212218 94 117 4.0 12.0 0.00 0.00 0.00 55 1012.9
20260830212117 94 95 4.0 12.0 0.00 0.00 0.00 55 1012.9
20260830212015 94 65 4.0 12.0 0.00 0.00 0.00 54 1012.9
20260830211917 94 75 4.0 12.0 0.00 0.00 0.00 54 1012.9
20260830211808 94 78 4.0 12.0 0.00 0.00 0.00 54 1013.0
20260830211701 94 116 4.0 12.0 0.00 0.00 0.00 53 1013.0
20260830211601 94 84 4.0 12.0 0.00 0.00 0.00 53 1013.0
20260830211455 95 74 4.0 12.0 0.00 0.00 0.00 52 1013.0
20260830211353 95 85 4.0 12.0 0.00 0.00 0.00 52 1013.0
20260830211304 95 87 4.0 12.0 0.00 0.00 0.00 52 1013.0
20260830211243 95 83 4.0 11.0 0.00 0.00 0.00 54 1013.1
20260830211139 95 83 3.0 8.0 0.00 0.00 0.00 54 1013.1
20260830211030 95 119 4.0 8.0 0.00 0.00 0.00 54 1013.1
20260830210930 95 68 3.0 8.0 0.00 0.00 0.00 54 1013.1
20260830210830 95 103 3.0 8.0 0.00 0.00 0.00 54 1013.1
20260830210759 95 125 3.0 8.0 0.00 0.00 0.00 54 1013.1
20260830210721 95 98 3.0 8.0 0.00 0.00 0.00 53 1013.1
20260830210612 95 85 3.0 8.0 0.00 0.00 0.00 52 1013.0
20260830210500 95 130 3.0 7.0 0.00 0.00 0.00 52 1013.0
20260830210358 95 89 3.0 7.0 0.00 0.00 0.00 52 1013.1
20260830210257 95 86 3.0 7.0 0.00 0.00 0.00 52 1013.1
20260830210149 95 174 3.0 7.0 0.00 0.00 0.00 52 1013.1
20260830210039 95 106 3.0 7.0 0.00 0.00 0.00 52 1013.1
20260830205936 95 54 3.0 7.0 0.00 0.00 0.00 51 1013.1
20260830205836 95 87 4.0 8.0 0.00 0.00 0.00 51 1013.1
20260830205755 95 97 4.0 8.0 0.00 0.00 0.00 51 1013.1
20260830205727 95 82 4.0 8.0 0.00 0.00 0.00 52 1013.2
20260830205628 95 85 3.0 8.0 0.00 0.00 0.00 52 1013.2
20260830205529 95 92 3.0 8.0 0.00 0.00 0.00 52 1013.2
20260830205518 95 80 3.0 8.0 0.00 0.00 0.00 51 1013.2
20260830205425 95 111 3.0 8.0 0.00 0.00 0.00 52 1013.2
20260830205408 95 86 3.0 8.0 0.00 0.00 0.00 51 1013.2
20260830205225 95 94 3.0 8.0 0.00 0.00 0.00 52 1013.2
20260830205124 95 95 2.0 8.0 0.00 0.00 0.00 50 1013.1
20260830205024 95 93 2.0 8.0 0.00 0.00 0.00 50 1013.1
20260830204925 95 92 3.0 8.0 0.00 0.00 0.00 50 1013.1
20260830204822 95 53 3.0 10.0 0.00 0.00 0.00 50 1013.1
20260830204756 95 76 3.0 10.0 0.00 0.00 0.00 50 1013.1
20260830204722 95 104 3.0 10.0 0.00 0.00 0.00 51 1013.2
20260830204627 95 73 3.0 10.0 0.00 0.00 0.00 50 1013.3
20260830204519 95 190 3.0 10.0 0.00 0.00 0.00 50 1013.3
20260830204405 95 188 3.0 10.0 0.00 0.00 0.00 50 1013.3
20260830204259 95 128 3.0 10.0 0.00 0.00 0.00 50 1013.3
20260830204134 95 152 3.0 10.0 0.00 0.00 0.00 50 1013.3
20260830204025 95 143 4.0 10.0 0.00 0.00 0.00 50 1013.3
20260830203915 95 164 4.0 10.0 0.00 0.00 0.00 50 1013.3
20260830203815 95 124 4.0 9.0 0.00 0.00 0.00 50 1013.3
20260830203757 95 146 4.0 9.0 0.00 0.00 0.00 50 1013.3
20260830203713 95 80 3.0 9.0 0.00 0.00 0.00 50 1013.3
20260830203606 95 135 4.0 9.0 0.00 0.00 0.00 49 1013.3
20260830203455 95 51 4.0 9.0 0.00 0.00 0.00 49 1013.3
20260830203355 95 123 4.0 9.0 0.00 0.00 0.00 52 1013.3
20260830203259 95 92 3.0 9.0 0.00 0.00 0.00 52 1013.3
20260830203255 95 98 4.0 9.0 0.00 0.00 0.00 52 1013.3
20260830203155 95 68 4.0 9.0 0.00 0.00 0.00 50 1013.3
20260830203057 95 91 4.0 9.0 0.00 0.00 0.00 50 1013.3
20260830202954 95 84 3.0 9.0 0.00 0.00 0.00 49 1013.4
20260830202852 95 89 3.0 8.0 0.00 0.00 0.00 49 1013.4
20260830202756 95 206 3.0 8.0 0.00 0.00 0.00 49 1013.4
20260830202752 95 206 3.0 9.0 0.00 0.00 0.00 49 1013.4
20260830202642 95 112 4.0 9.0 0.00 0.00 0.00 50 1013.4
20260830202542 95 88 4.0 9.0 0.00 0.00 0.00 50 1013.4
20260830202440 95 77 4.0 9.0 0.00 0.00 0.00 49 1013.4
20260830202339 96 339 4.0 9.0 0.00 0.00 0.00 51 1013.5
20260830202253 96 83 4.0 9.0 0.00 0.00 0.00 51 1013.5
20260830202239 96 76 4.0 9.0 0.00 0.00 0.00 51 1013.5
20260830202140 96 83 4.0 9.0 0.00 0.00 0.00 51 1013.5
20260830202040 96 91 4.0 9.0 0.00 0.00 0.00 51 1013.5
20260830201936 96 61 4.0 9.0 0.00 0.00 0.00 51 1013.5
20260830201836 96 61 4.0 9.0 0.00 0.00 0.00 51 1013.5
20260830201753 96 77 4.0 9.0 0.00 0.00 0.00 51 1013.6
20260830201734 96 74 4.0 9.0 0.00 0.00 0.00 51 1013.6
20260830201633 96 68 3.0 9.0 0.00 0.00 0.00 51 1013.6
20260830201531 96 38 3.0 8.0 0.00 0.00 0.00 51 1013.6
20260830201428 96 73 3.0 8.0 0.00 0.00 0.00 51 1013.6
20260830201328 96 102 3.0 8.0 0.00 0.00 0.00 51 1013.6
20260830201254 96 101 3.0 8.0 0.00 0.00 0.00 51 1013.6
20260830201228 96 102 3.0 8.0 0.00 0.00 0.00 51 1013.6
20260830201136 96 187 4.0 8.0 0.00 0.00 0.00 51 1013.6
20260830201028 96 88 3.0 8.0 0.00 0.00 0.00 51 1013.6
20260830200926 95 82 4.0 8.0 0.00 0.00 0.00 51 1013.6
20260830200822 95 85 4.0 8.0 0.00 0.00 0.00 51 1013.6
20260830200750 95 38 4.0 8.0 0.00 0.00 0.00 51 1013.6
20260830200726 95 355 4.0 8.0 0.00 0.00 0.00 51 1013.6
20260830200617 96 51 4.0 8.0 0.00 0.00 0.00 51 1013.6
20260830200516 96 149 3.0 8.0 0.00 0.00 0.00 51 1013.6
20260830200511 96 102 3.0 7.0 0.00 0.00 0.00 52 1013.6
20260830200415 96 115 3.0 8.0 0.00 0.00 0.00 50 1013.6
20260830200357 96 89 3.0 7.0 0.00 0.00 0.00 50 1013.6
20260830200215 96 93 3.0 7.0 0.00 0.00 0.00 52 1013.6
20260830200110 96 118 3.0 7.0 0.00 0.00 0.00 51 1013.6
20260830200010 96 37 3.0 7.0 0.00 0.00 0.00 51 1013.6
20260830195843 96 98 3.0 7.0 0.00 0.00 0.00 51 1013.6
20260830195751 96 60 3.0 7.0 0.00 0.00 0.00 51 1013.6
20260830195738 96 68 2.0 7.0 0.00 0.00 0.00 51 1013.6
20260830195638 96 32 2.0 7.0 0.00 0.00 0.00 50 1013.7
20260830195533 96 173 2.0 7.0 0.00 0.00 0.00 50 1013.7
20260830195434 96 102 2.0 7.0 0.00 0.00 0.00 50 1013.7
20260830195332 96 110 2.0 7.0 0.00 0.00 0.00 50 1013.7
20260830195248 96 88 2.0 9.0 0.00 0.00 0.00 50 1013.7
20260830195229 96 144 2.0 9.0 0.00 0.00 0.00 50 1013.7
20260830195122 96 66 3.0 9.0 0.00 0.00 0.00 49 1013.7
20260830195021 96 88 2.0 9.0 0.00 0.00 0.00 50 1013.7
20260830194909 96 60 2.0 9.0 0.00 0.00 0.00 50 1013.8
20260830194814 96 48 2.0 9.0 0.00 0.00 0.00 50 1013.8
20260830194746 96 70 2.0 9.0 0.00 0.00 0.00 50 1013.8
20260830194659 96 74 2.0 9.0 0.00 0.00 0.00 50 1013.8
20260830194557 96 8 3.0 9.0 0.00 0.00 0.00 49 1013.9
20260830194507 96 99 3.0 8.0 0.00 0.00 0.00 50 1013.9
20260830194449 96 267 3.0 9.0 0.00 0.00 0.00 49 1013.9
20260830194350 96 112 3.0 9.0 0.00 0.00 0.00 49 1013.9
20260830194240 96 103 3.0 8.0 0.00 0.00 0.00 50 1013.9
20260830194142 96 120 3.0 8.0 0.00 0.00 0.00 50 1013.9
20260830194038 96 112 2.0 8.0 0.00 0.00 0.00 49 1014.0
20260830194013 96 68 2.0 8.0 0.00 0.00 0.00 50 1014.0
20260830193938 96 75 2.0 8.0 0.00 0.00 0.00 51 1014.0
20260830193853 96 41 2.0 8.0 0.00 0.00 0.00 50 1014.0
20260830193723 96 69 2.0 8.0 0.00 0.00 0.00 50 1014.0
20260830193617 96 72 2.0 8.0 0.00 0.00 0.00 49 1014.1
20260830193515 96 82 2.0 8.0 0.00 0.00 0.00 51 1014.1
20260830193402 96 95 2.0 8.0 0.00 0.00 0.00 51 1014.1
20260830193255 96 2 2.0 5.0 0.00 0.00 0.00 50 1014.1
20260830193245 96 13 2.0 5.0 0.00 0.00 0.00 50 1014.1
20260830193156 96 47 2.0 5.0 0.00 0.00 0.00 51 1014.2
20260830193055 96 68 2.0 5.0 0.00 0.00 0.00 51 1014.2
20260830192955 96 82 2.0 5.0 0.00 0.00 0.00 52 1014.2
20260830192850 96 80 2.0 5.0 0.00 0.00 0.00 51 1014.2
20260830192746 96 115 2.0 4.0 0.00 0.00 0.00 51 1014.2
20260830192641 96 91 2.0 4.0 0.00 0.00 0.00 50 1014.2
20260830192534 97 70 2.0 5.0 0.00 0.00 0.00 51 1014.3
20260830192434 97 101 2.0 5.0 0.00 0.00 0.00 51 1014.3
20260830192321 97 110 2.0 5.0 0.00 0.00 0.00 51 1014.3
20260830192245 97 63 2.0 5.0 0.00 0.00 0.00 51 1014.3
20260830192219 97 65 2.0 5.0 0.00 0.00 0.00 51 1014.3
20260830192116 97 79 2.0 5.0 0.00 0.00 0.00 51 1014.3
20260830192018 97 68 2.0 5.0 0.00 0.00 0.00 49 1014.3
20260830191916 97 59 2.0 5.0 0.00 0.00 0.00 49 1014.3
20260830191817 97 359 2.0 5.0 0.00 0.00 0.00 48 1014.3
20260830191745 97 110 2.0 5.0 0.00 0.00 0.00 49 1014.4
20260830191715 97 23 2.0 5.0 0.00 0.00 0.00 49 1014.4
20260830191605 97 107 1.0 5.0 0.00 0.00 0.00 49 1014.4
20260830191459 96 132 1.0 4.0 0.00 0.00 0.00 48 1014.4
20260830191357 96 27 1.0 4.0 0.00 0.00 0.00 49 1014.4
20260830191256 96 0 2.0 4.0 0.00 0.00 0.00 48 1014.4
20260830191245 96 40 2.0 4.0 0.00 0.00 0.00 48 1014.4
20260830191156 96 279 2.0 5.0 0.00 0.00 0.00 48 1014.4
20260830191053 96 353 2.0 5.0 0.00 0.00 0.00 49 1014.5
20260830190944 96 110 1.0 5.0 0.00 0.00 0.00 48 1014.5
20260830190843 96 166 1.0 5.0 0.00 0.00 0.00 49 1014.5
20260830190747 97 138 1.0 5.0 0.00 0.00 0.00 48 1014.6
20260830190743 97 114 1.0 5.0 0.00 0.00 0.00 48 1014.6
20260830190647 97 10 1.0 5.0 0.00 0.00 0.00 48 1014.6
20260830190527 97 193 2.0 5.0 0.00 0.00 0.00 48 1014.6
20260830190417 97 97 1.0 5.0 0.00 0.00 0.00 49 1014.6
20260830190315 97 54 1.0 5.0 0.00 0.00 0.00 49 1014.6
20260830190246 97 84 1.0 5.0 0.00 0.00 0.00 49 1014.6
20260830190215 97 78 1.0 3.0 0.00 0.00 0.00 49 1014.6
20260830190114 97 77 1.0 3.0 0.00 0.00 0.00 49 1014.6
20260830190014 96 174 1.0 3.0 0.00 0.00 0.00 49 1014.6
20260830185908 96 225 1.0 4.0 0.00 0.00 0.00 49 1014.6
20260830185807 96 98 1.0 4.0 0.00 0.00 0.00 50 1014.7
20260830185736 96 155 1.0 4.0 0.00 0.00 0.00 50 1014.7
20260830185704 96 85 1.0 4.0 0.00 0.00 0.00 50 1014.7
20260830185556 96 116 1.0 4.0 0.00 0.00 0.00 50 1014.7
20260830185456 96 214 1.0 4.0 0.00 0.00 0.00 50 1014.7
20260830185350 95 80 1.0 4.0 0.00 0.00 0.00 52 1014.8
20260830185250 95 248 2.0 4.0 0.00 0.00 0.00 52 1014.8
20260830185237 95 3 2.0 4.0 0.00 0.00 0.00 52 1014.8
20260830185150 95 314 2.0 4.0 0.00 0.00 0.00 52 1014.8
20260830185046 95 351 2.0 4.0 0.00 0.00 0.00 52 1014.8
20260830184947 95 57 2.0 4.0 0.00 0.00 0.00 52 1014.8
20260830184838 95 300 2.0 4.0 0.00 0.00 0.00 52 1014.8
20260830184740 95 12 2.0 3.0 0.00 0.00 0.00 53 1014.9
20260830184642 95 331 2.0 4.0 0.00 0.00 0.00 53 1014.9
20260830184535 95 338 2.0 4.0 0.00 0.00 0.00 54 1014.9
20260830184426 95 18 2.0 4.0 0.00 0.00 0.00 54 1014.9
20260830184323 94 109 2.0 4.0 0.00 0.00 0.00 54 1014.9
20260830184222 94 54 2.0 4.0 0.00 0.00 0.00 53 1014.9
20260830184217 94 38 2.0 4.0 0.00 0.00 0.00 53 1014.9
20260830184116 95 18 2.0 4.0 0.00 0.00 0.00 54 1015.0
20260830184009 95 62 2.0 4.0 0.00 0.00 0.00 54 1015.0
20260830183914 94 69 2.0 4.0 0.00 0.00 0.00 54 1015.0
20260830183751 94 92 2.0 4.0 0.00 0.00 0.00 54 1015.0
20260830183721 94 21 1.0 4.0 0.00 0.00 0.00 54 1015.0
20260830183647 94 100 1.0 4.0 0.00 0.00 0.00 55 1015.0
20260830183541 94 106 1.0 4.0 0.00 0.00 0.00 54 1015.0
20260830183442 94 279 2.0 4.0 0.00 0.00 0.00 57 1015.0
20260830183438 94 83 1.0 3.0 0.00 0.00 0.00 57 1015.0
20260830183337 94 50 1.0 4.0 0.00 0.00 0.00 57 1015.0
20260830183331 94 80 2.0 4.0 0.00 0.00 0.00 57 1015.0
20260830183135 94 178 2.0 4.0 0.00 0.00 0.00 57 1015.0
20260830183039 94 0 2.0 6.0 0.00 0.00 0.00 57 1015.0
20260830182941 93 193 2.0 6.0 0.00 0.00 0.00 57 1015.0
20260830182923 94 166 2.0 6.0 0.00 0.00 0.00 57 1015.0
20260830182835 93 0 2.0 6.0 0.00 0.00 0.00 58 1015.0
20260830182829 93 193 2.0 6.0 0.00 0.00 0.00 57 1015.0
20260830182611 93 73 2.0 6.0 0.00 0.00 0.00 57 1015.0
20260830182513 94 58 2.0 6.0 0.00 0.00 0.00 55 1015.1
20260830182412 94 49 2.0 6.0 0.00 0.00 0.00 55 1015.1
20260830182309 94 77 2.0 6.0 0.00 0.00 0.00 55 1015.1
20260830182213 94 42 2.0 6.0 0.00 0.00 0.00 55 1015.1
20260830182209 94 141 2.0 6.0 0.00 0.00 0.00 55 1015.1
20260830182102 94 273 2.0 6.0 0.00 0.00 0.00 55 1015.1
20260830182003 94 255 2.0 4.0 0.00 0.00 0.00 56 1015.2
20260830181902 94 239 1.0 4.0 0.00 0.00 0.00 56 1015.2
20260830181805 94 183 1.0 4.0 0.00 0.00 0.00 54 1015.2
20260830181710 94 80 1.0 4.0 0.00 0.00 0.00 54 1015.2
20260830181656 94 86 1.0 3.0 0.00 0.00 0.00 55 1015.2
20260830181554 94 192 1.0 3.0 0.00 0.00 0.00 56 1015.3
20260830181454 93 224 1.0 6.0 0.00 0.00 0.00 56 1015.3
20260830181354 93 189 1.0 6.0 0.00 0.00 0.00 56 1015.3
20260830181253 93 78 2.0 6.0 0.00 0.00 0.00 56 1015.3
20260830181210 93 111 2.0 6.0 0.00 0.00 0.00 56 1015.3
20260830181154 94 45 2.0 6.0 0.00 0.00 0.00 56 1015.4
20260830181055 94 0 2.0 6.0 0.00 0.00 0.00 56 1015.4
20260830180938 94 279 2.0 6.0 0.00 0.00 0.00 56 1015.5
20260830180838 94 146 2.0 6.0 0.00 0.00 0.00 56 1015.5
20260830180736 94 79 2.0 6.0 0.00 0.00 0.00 56 1015.5
20260830180703 94 82 2.0 6.0 0.00 0.00 0.00 56 1015.5
20260830180642 94 109 2.0 6.0 0.00 0.00 0.00 55 1015.5
20260830180526 94 82 2.0 6.0 0.00 0.00 0.00 55 1015.5
20260830180426 94 105 2.0 6.0 0.00 0.00 0.00 55 1015.5
20260830180324 94 83 2.0 6.0 0.00 0.00 0.00 55 1015.5
20260830180224 94 61 2.0 6.0 0.00 0.00 0.00 55 1015.6
20260830180204 94 32 2.0 6.0 0.00 0.00 0.00 55 1015.6
20260830180135 94 230 2.0 6.0 0.00 0.00 0.00 55 1015.6
20260830180028 94 78 2.0 6.0 0.00 0.00 0.00 55 1015.6
20260830175915 94 110 2.0 6.0 0.00 0.00 0.00 54 1015.6
20260830175805 94 43 2.0 6.0 0.00 0.00 0.00 54 1015.6
20260830175706 94 154 2.0 6.0 0.00 0.00 0.00 55 1015.7
20260830175606 94 164 2.0 6.0 0.00 0.00 0.00 55 1015.7
20260830175459 94 86 1.0 5.0 0.00 0.00 0.00 55 1015.7
20260830175429 94 13 1.0 5.0 0.00 0.00 0.00 54 1015.7
20260830175359 94 180 2.0 5.0 0.00 0.00 0.00 55 1015.7
20260830175305 94 223 2.0 5.0 0.00 0.00 0.00 56 1015.7
20260830175153 94 122 1.0 5.0 0.00 0.00 0.00 54 1015.7
20260830175035 94 290 2.0 5.0 0.00 0.00 0.00 54 1015.7
20260830174927 94 189 1.0 4.0 0.00 0.00 0.00 55 1015.7
20260830174914 94 238 1.0 4.0 0.00 0.00 0.00 57 1015.8
20260830174824 94 238 1.0 4.0 0.00 0.00 0.00 54 1015.7
20260830174801 94 250 1.0 4.0 0.00 0.00 0.00 56 1015.8
20260830174624 94 193 1.0 4.0 0.00 0.00 0.00 57 1015.8
20260830174507 94 329 1.0 3.0 0.00 0.00 0.00 57 1015.8
20260830174404 94 252 1.0 3.0 0.00 0.00 0.00 57 1015.8
20260830174300 94 309 1.0 4.0 0.00 0.00 0.00 55 1015.8
20260830174202 94 52 1.0 4.0 0.00 0.00 0.00 55 1015.8
20260830174155 93 71 1.0 4.0 0.00 0.00 0.00 56 1015.9
20260830174107 93 205 1.0 4.0 0.00 0.00 0.00 56 1015.9
20260830173948 93 324 2.0 4.0 0.00 0.00 0.00 56 1015.9
20260830173909 93 81 2.0 4.0 0.00 0.00 0.00 55 1015.9
20260830173847 93 197 2.0 4.0 0.00 0.00 0.00 56 1015.9
20260830173755 93 72 2.0 4.0 0.00 0.00 0.00 55 1015.9
20260830173641 93 142 2.0 4.0 0.00 0.00 0.00 55 1015.9
20260830173521 93 296 2.0 4.0 0.00 0.00 0.00 55 1015.9
20260830173419 93 263 2.0 4.0 0.00 0.00 0.00 56 1015.9
20260830173406 93 87 2.0 4.0 0.00 0.00 0.00 59 1015.9
20260830173300 93 248 2.0 4.0 0.00 0.00 0.00 59 1015.9
20260830173250 93 87 2.0 4.0 0.00 0.00 0.00 59 1015.9
20260830173046 93 138 2.0 5.0 0.00 0.00 0.00 58 1015.9
20260830172942 94 41 2.0 5.0 0.00 0.00 0.00 57 1016.0
20260830172842 94 58 2.0 5.0 0.00 0.00 0.00 57 1016.0
20260830172741 94 54 2.0 5.0 0.00 0.00 0.00 57 1016.0
20260830172634 94 153 2.0 5.0 0.00 0.00 0.00 58 1016.0
20260830172530 94 32 2.0 5.0 0.00 0.00 0.00 58 1016.0
20260830172431 94 329 2.0 5.0 0.00 0.00 0.00 56 1016.0
20260830172346 94 138 2.0 5.0 0.00 0.00 0.00 56 1016.0
20260830172219 94 156 2.0 5.0 0.00 0.00 0.00 56 1016.0
20260830172129 94 89 2.0 4.0 0.00 0.00 0.00 56 1016.0
20260830172120 94 59 2.0 4.0 0.00 0.00 0.00 56 1016.0
20260830172013 94 110 1.0 4.0 0.00 0.00 0.00 58 1016.1
20260830171908 94 207 1.0 4.0 0.00 0.00 0.00 58 1016.1
20260830171809 94 0 1.0 4.0 0.00 0.00 0.00 58 1016.1
20260830171706 94 201 1.0 4.0 0.00 0.00 0.00 58 1016.1
20260830171623 94 279 1.0 4.0 0.00 0.00 0.00 58 1016.1
20260830171609 94 213 1.0 4.0 0.00 0.00 0.00 58 1016.1
20260830171507 94 107 1.0 4.0 0.00 0.00 0.00 58 1016.1
20260830171402 94 262 1.0 4.0 0.00 0.00 0.00 57 1016.2
20260830171345 94 28 1.0 4.0 0.00 0.00 0.00 57 1016.2
20260830171257 94 311 1.0 4.0 0.00 0.00 0.00 57 1016.2
20260830171228 94 268 1.0 4.0 0.00 0.00 0.00 57 1016.2
20260830171049 94 212 1.0 4.0 0.00 0.00 0.00 58 1016.2
20260830170947 94 253 1.0 4.0 0.00 0.00 0.00 58 1016.2
20260830170839 94 185 1.0 4.0 0.00 0.00 0.00 59 1016.2
20260830170739 94 68 1.0 4.0 0.00 0.00 0.00 57 1016.2
20260830170640 94 79 1.0 4.0 0.00 0.00 0.00 57 1016.2
20260830170621 94 36 1.0 4.0 0.00 0.00 0.00 57 1016.2
20260830170539 94 82 1.0 4.0 0.00 0.00 0.00 57 1016.2
20260830170431 94 348 1.0 4.0 0.00 0.00 0.00 57 1016.2
20260830170328 94 348 1.0 4.0 0.00 0.00 0.00 57 1016.2
20260830170225 94 323 1.0 3.0 0.00 0.00 0.00 57 1016.2
20260830170121 93 183 1.0 3.0 0.00 0.00 0.00 58 1016.2
20260830170117 93 345 1.0 3.0 0.00 0.00 0.00 58 1016.2
20260830170012 93 199 1.0 4.0 0.00 0.00 0.00 58 1016.2
20260830165905 93 25 1.0 4.0 0.00 0.00 0.00 58 1016.2
20260830165800 93 204 2.0 5.0 0.00 0.00 0.00 61 1016.2
20260830165654 93 14 2.0 5.0 0.00 0.00 0.00 61 1016.2
20260830165619 93 328 2.0 5.0 0.00 0.00 0.00 61 1016.2
20260830165554 93 144 2.0 5.0 0.00 0.00 0.00 61 1016.2
20260830165451 93 88 2.0 5.0 0.00 0.00 0.00 61 1016.2
20260830165351 93 97 2.0 5.0 0.00 0.00 0.00 61 1016.2
20260830165246 93 69 2.0 5.0 0.00 0.00 0.00 61 1016.2
20260830165143 93 119 2.0 5.0 0.00 0.00 0.00 60 1016.1
20260830165105 93 128 2.0 5.0 0.00 0.00 0.00 60 1016.1
20260830165036 93 149 2.0 5.0 0.00 0.00 0.00 60 1016.1
20260830164936 93 59 2.0 5.0 0.00 0.00 0.00 60 1016.1
20260830164836 93 98 2.0 5.0 0.00 0.00 0.00 60 1016.1
20260830164736 93 48 2.0 5.0 0.00 0.00 0.00 59 1016.1
20260830164631 93 88 2.0 5.0 0.00 0.00 0.00 60 1016.1
20260830164605 93 58 2.0 5.0 0.00 0.00 0.00 60 1016.1
20260830164531 93 32 2.0 5.0 0.00 0.00 0.00 61 1016.1
20260830164421 93 356 2.0 5.0 0.00 0.00 0.00 60 1016.1
20260830164318 93 11 2.0 5.0 0.00 0.00 0.00 60 1016.1
20260830164219 94 41 2.0 5.0 0.00 0.00 0.00 60 1016.1
20260830164118 94 33 2.0 5.0 0.00 0.00 0.00 60 1016.1
20260830164105 94 54 2.0 5.0 0.00 0.00 0.00 60 1016.1
20260830164015 94 128 2.0 5.0 0.00 0.00 0.00 58 1016.1
20260830163915 94 89 1.0 5.0 0.00 0.00 0.00 60 1016.1
20260830163816 94 141 1.0 3.0 0.00 0.00 0.00 59 1016.1
20260830163716 94 11 1.0 3.0 0.00 0.00 0.00 60 1016.1
20260830163616 94 79 1.0 3.0 0.00 0.00 0.00 60 1016.1
20260830163606 94 26 1.0 3.0 0.00 0.00 0.00 60 1016.1
20260830163535 93 51 2.0 3.0 0.00 0.00 0.00 62 1016.2
20260830163514 94 74 1.0 3.0 0.00 0.00 0.00 60 1016.1
20260830163423 93 96 2.0 3.0 0.00 0.00 0.00 59 1016.1
20260830163307 93 239 2.0 3.0 0.00 0.00 0.00 60 1016.2
20260830163204 93 6 2.0 3.0 0.00 0.00 0.00 61 1016.2
20260830163153 93 63 2.0 3.0 0.00 0.00 0.00 62 1016.2
20260830162958 93 357 2.0 3.0 0.00 0.00 0.00 62 1016.2
20260830162900 93 311 2.0 3.0 0.00 0.00 0.00 61 1016.2
20260830162758 93 329 2.0 3.0 0.00 0.00 0.00 61 1016.2
20260830162658 93 291 2.0 3.0 0.00 0.00 0.00 59 1016.2
20260830162559 93 11 1.0 3.0 0.00 0.00 0.00 60 1016.2
20260830162545 93 10 1.0 3.0 0.00 0.00 0.00 60 1016.2
20260830162456 93 27 1.0 3.0 0.00 0.00 0.00 59 1016.3
20260830162353 93 51 1.0 3.0 0.00 0.00 0.00 60 1016.3
20260830162250 93 91 1.0 3.0 0.00 0.00 0.00 61 1016.3
20260830162150 93 83 1.0 3.0 0.00 0.00 0.00 62 1016.3
20260830162041 93 162 1.0 3.0 0.00 0.00 0.00 62 1016.3
20260830161946 93 51 1.0 3.0 0.00 0.00 0.00 62 1016.3
20260830161841 93 328 1.0 3.0 0.00 0.00 0.00 62 1016.3
20260830161740 93 0 1.0 3.0 0.00 0.00 0.00 62 1016.3
20260830161638 93 107 1.0 3.0 0.00 0.00 0.00 61 1016.3
20260830161541 93 0 1.0 3.0 0.00 0.00 0.00 61 1016.3
20260830161537 93 153 1.0 3.0 0.00 0.00 0.00 61 1016.3
20260830161434 93 237 1.0 3.0 0.00 0.00 0.00 60 1016.3
20260830161336 93 357 1.0 3.0 0.00 0.00 0.00 62 1016.4
20260830161235 93 13 1.0 3.0 0.00 0.00 0.00 62 1016.4
20260830161128 93 335 1.0 3.0 0.00 0.00 0.00 63 1016.3
20260830161038 93 16 1.0 3.0 0.00 0.00 0.00 63 1016.3
20260830161023 93 92 1.0 3.0 0.00 0.00 0.00 63 1016.3
20260830160913 93 311 1.0 3.0 0.00 0.00 0.00 63 1016.3
20260830160820 93 287 1.0 3.0 0.00 0.00 0.00 63 1016.3
20260830160805 93 344 1.0 3.0 0.00 0.00 0.00 64 1016.3
20260830160707 93 53 1.0 3.0 0.00 0.00 0.00 62 1016.3
20260830160644 93 155 1.0 3.0 0.00 0.00 0.00 64 1016.3
20260830160503 93 10 1.0 3.0 0.00 0.00 0.00 64 1016.3
20260830160407 92 355 1.0 3.0 0.00 0.00 0.00 65 1016.3
20260830160301 92 2 1.0 3.0 0.00 0.00 0.00 65 1016.3
20260830160159 92 53 1.0 3.0 0.00 0.00 0.00 65 1016.3
20260830160059 92 39 1.0 3.0 0.00 0.00 0.00 66 1016.3
20260830160036 92 31 1.0 3.0 0.00 0.00 0.00 66 1016.3
20260830155959 92 16 1.0 3.0 0.00 0.00 0.00 63 1016.3
20260830155859 92 358 1.0 3.0 0.00 0.00 0.00 63 1016.3
20260830155759 92 273 1.0 3.0 0.00 0.00 0.00 65 1016.3
20260830155659 92 148 1.0 3.0 0.00 0.00 0.00 65 1016.3
20260830155600 91 351 1.0 3.0 0.00 0.00 0.00 65 1016.3
20260830155536 91 344 1.0 3.0 0.00 0.00 0.00 65 1016.3
20260830155457 91 11 1.0 4.0 0.00 0.00 0.00 65 1016.3
20260830155353 91 31 1.0 4.0 0.00 0.00 0.00 67 1016.3
20260830155249 91 0 1.0 4.0 0.00 0.00 0.00 67 1016.3
20260830155139 91 211 1.0 4.0 0.00 0.00 0.00 67 1016.3
20260830155038 91 0 1.0 4.0 0.00 0.00 0.00 67 1016.3
20260830155028 91 216 1.0 4.0 0.00 0.00 0.00 67 1016.3
20260830154931 91 290 2.0 4.0 0.00 0.00 0.00 66 1016.3
20260830154832 90 220 2.0 4.0 0.00 0.00 0.00 68 1016.3
20260830154733 90 40 2.0 4.0 0.00 0.00 0.00 68 1016.3
20260830154627 90 308 2.0 4.0 0.00 0.00 0.00 67 1016.3
20260830154531 90 318 2.0 4.0 0.00 0.00 0.00 67 1016.3
20260830154423 90 91 2.0 4.0 0.00 0.00 0.00 67 1016.3
20260830154320 90 24 2.0 4.0 0.00 0.00 0.00 68 1016.3
20260830154222 90 46 2.0 4.0 0.00 0.00 0.00 67 1016.3
20260830154117 91 71 2.0 4.0 0.00 0.00 0.00 67 1016.3
20260830154018 91 34 1.0 4.0 0.00 0.00 0.00 67 1016.3
20260830153911 91 92 1.0 3.0 0.00 0.00 0.00 66 1016.3
20260830153810 91 98 1.0 3.0 0.00 0.00 0.00 67 1016.3
20260830153711 91 114 1.0 3.0 0.00 0.00 0.00 67 1016.3
20260830153610 91 131 1.0 3.0 0.00 0.00 0.00 67 1016.3
20260830153515 91 194 1.0 2.0 0.00 0.00 0.00 67 1016.3
20260830153502 91 63 1.0 2.0 0.00 0.00 0.00 67 1016.3
20260830153401 91 109 1.0 2.0 0.00 0.00 0.00 67 1016.3
20260830153307 91 99 1.0 2.0 0.00 0.00 0.00 67 1016.3
20260830153242 90 73 1.0 2.0 0.00 0.00 0.00 67 1016.3
20260830153159 91 220 1.0 2.0 0.00 0.00 0.00 68 1016.2
20260830153121 90 0 1.0 2.0 0.00 0.00 0.00 67 1016.3
20260830152951 90 56 1.0 2.0 0.00 0.00 0.00 67 1016.3
20260830152845 90 66 1.0 2.0 0.00 0.00 0.00 67 1016.3
20260830152744 90 55 1.0 4.0 0.00 0.00 0.00 67 1016.3
20260830152635 90 110 1.0 4.0 0.00 0.00 0.00 67 1016.3
20260830152540 89 31 1.0 4.0 0.00 0.00 0.00 68 1016.4
20260830152518 89 38 1.0 4.0 0.00 0.00 0.00 68 1016.4
20260830152435 89 15 1.0 4.0 0.00 0.00 0.00 68 1016.4
20260830152336 89 197 1.0 4.0 0.00 0.00 0.00 70 1016.4
20260830152235 88 185 1.0 4.0 0.00 0.00 0.00 71 1016.3
20260830152135 88 181 1.0 4.0 0.00 0.00 0.00 71 1016.3
20260830152033 88 179 1.0 4.0 0.00 0.00 0.00 71 1016.3
20260830152009 88 318 1.0 4.0 0.00 0.00 0.00 71 1016.3
20260830151920 88 349 2.0 4.0 0.00 0.00 0.00 71 1016.3
20260830151817 88 225 2.0 4.0 0.00 0.00 0.00 71 1016.3
20260830151722 88 71 2.0 4.0 0.00 0.00 0.00 72 1016.3
20260830151606 88 53 2.0 4.0 0.00 0.00 0.00 72 1016.3
20260830151506 88 172 2.0 4.0 0.00 0.00 0.00 72 1016.3
20260830151459 88 221 2.0 4.0 0.00 0.00 0.00 72 1016.3
20260830151344 88 199 2.0 4.0 0.00 0.00 0.00 72 1016.3
20260830151229 88 269 2.0 4.0 0.00 0.00 0.00 73 1016.3
20260830151129 88 263 2.0 4.0 0.00 0.00 0.00 73 1016.3
20260830151035 89 245 2.0 4.0 0.00 0.00 0.00 72 1016.3
20260830150959 89 248 2.0 4.0 0.00 0.00 0.00 72 1016.3
20260830150926 89 210 2.0 4.0 0.00 0.00 0.00 72 1016.3
20260830150826 89 254 2.0 4.0 0.00 0.00 0.00 72 1016.3
20260830150718 89 259 1.0 4.0 0.00 0.00 0.00 72 1016.3
20260830150614 89 285 2.0 4.0 0.00 0.00 0.00 71 1016.3
20260830150508 89 254 1.0 4.0 0.00 0.00 0.00 71 1016.3
20260830150458 90 251 1.0 4.0 0.00 0.00 0.00 71 1016.3
20260830150413 90 299 1.0 3.0 0.00 0.00 0.00 71 1016.3
20260830150308 90 281 1.0 3.0 0.00 0.00 0.00 70 1016.3
20260830150204 90 199 1.0 3.0 0.00 0.00 0.00 70 1016.3
20260830145955 89 183 1.0 2.0 0.00 0.00 0.00 71 1016.3
20260830145911 89 210 1.0 2.0 0.00 0.00 0.00 71 1016.3
20260830145805 89 92 1.0 2.0 0.00 0.00 0.00 73 1016.3
20260830145700 89 350 1.0 2.0 0.00 0.00 0.00 73 1016.3
20260830145552 89 23 1.0 2.0 0.00 0.00 0.00 73 1016.3
20260830145450 89 11 1.0 2.0 0.00 0.00 0.00 73 1016.3
20260830145348 89 18 1.0 2.0 0.00 0.00 0.00 73 1016.4
20260830145245 89 50 1.0 2.0 0.00 0.00 0.00 73 1016.4
20260830145128 89 61 1.0 2.0 0.00 0.00 0.00 74 1016.4
20260830145022 89 109 1.0 2.0 0.00 0.00 0.00 74 1016.4
20260830144949 89 72 1.0 2.0 0.00 0.00 0.00 73 1016.4
20260830144924 89 40 1.0 2.0 0.00 0.00 0.00 73 1016.4
20260830144807 89 84 1.0 2.0 0.00 0.00 0.00 73 1016.4
20260830144651 89 193 1.0 2.0 0.00 0.00 0.00 73 1016.4
20260830144547 89 0 1.0 2.0 0.00 0.00 0.00 73 1016.4
20260830144447 89 166 1.0 2.0 0.00 0.00 0.00 72 1016.4
20260830144438 89 291 1.0 2.0 0.00 0.00 0.00 72 1016.4
20260830144345 89 28 1.0 2.0 0.00 0.00 0.00 72 1016.4
20260830144252 88 255 1.0 2.0 0.00 0.00 0.00 73 1016.4
20260830144144 88 38 1.0 2.0 0.00 0.00 0.00 73 1016.4
20260830144027 88 35 1.0 2.0 0.00 0.00 0.00 74 1016.4
20260830143933 88 340 1.0 2.0 0.00 0.00 0.00 75 1016.4
20260830143929 88 296 1.0 2.0 0.00 0.00 0.00 75 1016.4
20260830143823 87 14 1.0 2.0 0.00 0.00 0.00 77 1016.5
20260830143720 87 339 1.0 2.0 0.00 0.00 0.00 77 1016.5
20260830143645 87 40 1.0 2.0 0.00 0.00 0.00 77 1016.6
20260830143626 87 25 1.0 2.0 0.00 0.00 0.00 77 1016.5
20260830143534 87 333 1.0 2.0 0.00 0.00 0.00 77 1016.6
20260830143417 87 247 1.0 2.0 0.00 0.00 0.00 77 1016.6
20260830143312 87 0 1.0 2.0 0.00 0.00 0.00 77 1016.6
20260830143213 87 258 1.0 2.0 0.00 0.00 0.00 77 1016.6
20260830143109 87 228 1.0 2.0 0.00 0.00 0.00 77 1016.6
20260830142956 87 274 1.0 2.0 0.00 0.00 0.00 77 1016.6
20260830142922 87 254 1.0 2.0 0.00 0.00 0.00 77 1016.6
20260830142857 87 0 1.0 2.0 0.00 0.00 0.00 77 1016.6
20260830142754 87 294 1.0 2.0 0.00 0.00 0.00 77 1016.5
20260830142654 87 180 1.0 2.0 0.00 0.00 0.00 77 1016.5
20260830142539 87 276 1.0 2.0 0.00 0.00 0.00 77 1016.5
20260830142440 87 254 1.0 2.0 0.00 0.00 0.00 78 1016.5
20260830142416 87 215 1.0 2.0 0.00 0.00 0.00 78 1016.5
20260830142341 87 0 1.0 2.0 0.00 0.00 0.00 78 1016.5
20260830142232 87 245 1.0 2.0 0.00 0.00 0.00 77 1016.4
20260830142127 88 233 1.0 2.0 0.00 0.00 0.00 77 1016.4
20260830142116 88 0 1.0 2.0 0.00 0.00 0.00 77 1016.4
20260830142027 88 220 1.0 2.0 0.00 0.00 0.00 77 1016.4
20260830141957 88 0 1.0 2.0 0.00 0.00 0.00 77 1016.4
20260830141816 88 349 1.0 2.0 0.00 0.00 0.00 77 1016.4
20260830141715 88 260 1.0 2.0 0.00 0.00 0.00 76 1016.4
20260830141611 88 314 1.0 2.0 0.00 0.00 0.00 77 1016.4
20260830141509 87 356 1.0 2.0 0.00 0.00 0.00 77 1016.4
20260830141402 87 19 1.0 2.0 0.00 0.00 0.00 77 1016.4
20260830141351 87 38 1.0 2.0 0.00 0.00 0.00 77 1016.4
20260830141308 86 131 1.0 2.0 0.00 0.00 0.00 79 1016.4
20260830141200 86 41 1.0 2.0 0.00 0.00 0.00 80 1016.4
20260830141046 86 26 1.0 2.0 0.00 0.00 0.00 80 1016.4
20260830140939 85 76 1.0 2.0 0.00 0.00 0.00 80 1016.4
20260830140844 85 48 1.0 2.0 0.00 0.00 0.00 81 1016.4
20260830140836 85 79 1.0 2.0 0.00 0.00 0.00 81 1016.4
20260830140730 85 267 1.0 2.0 0.00 0.00 0.00 84 1016.4
20260830140629 85 74 0.0 2.0 0.00 0.00 0.00 84 1016.4
20260830140522 84 0 0.0 2.0 0.00 0.00 0.00 85 1016.4
20260830140420 84 4 0.0 2.0 0.00 0.00 0.00 86 1016.3
20260830140337 84 317 1.0 2.0 0.00 0.00 0.00 87 1016.3
20260830140318 84 324 1.0 2.0 0.00 0.00 0.00 87 1016.3
20260830140218 83 44 1.0 2.0 0.00 0.00 0.00 88 1016.3
20260830140117 83 281 1.0 2.0 0.00 0.00 0.00 88 1016.3
20260830140012 83 0 1.0 3.0 0.00 0.00 0.00 89 1016.3
20260830135943 83 355 1.0 3.0 0.00 0.00 0.00 89 1016.3
20260830135806 83 0 1.0 3.0 0.00 0.00 0.00 90 1016.3
20260830135706 83 294 2.0 3.0 0.00 0.00 0.00 91 1016.3
20260830135607 82 286 2.0 3.0 0.00 0.00 0.00 92 1016.3
20260830135507 82 37 2.0 3.0 0.00 0.00 0.00 94 1016.3
20260830135407 82 43 2.0 3.0 0.00 0.00 0.00 96 1016.3
20260830135337 82 61 2.0 3.0 0.00 0.00 0.00 98 1016.3
20260830135306 82 22 2.0 3.0 0.00 0.00 0.00 98 1016.3
20260830135159 81 28 2.0 3.0 0.00 0.00 0.00 98 1016.2
20260830135059 81 39 2.0 3.0 0.00 0.00 0.00 100 1016.2
20260830134955 81 36 2.0 3.0 0.00 0.00 0.00 100 1016.2
20260830134859 81 50 1.0 3.0 0.00 0.00 0.00 100 1016.2
20260830134840 81 30 1.0 3.0 0.00 0.00 0.00 100 1016.2
20260830134752 81 26 1.0 3.0 0.00 0.00 0.00 100 1016.2
20260830134652 81 28 1.0 3.0 0.00 0.00 0.00 100 1016.2
20260830134552 80 328 1.0 2.0 0.00 0.00 0.00 100 1016.2
20260830134452 80 36 1.0 2.0 0.00 0.00 0.00 100 1016.2
20260830134352 80 19 1.0 2.0 0.00 0.00 0.00 100 1016.2
20260830134332 80 39 1.0 2.0 0.00 0.00 0.00 100 1016.2
20260830134251 80 31 1.0 2.0 0.00 0.00 0.00 100 1016.2
20260830134151 80 28 1.0 2.0 0.00 0.00 0.00 100 1016.1
20260830134049 80 25 1.0 2.0 0.00 0.00 0.00 100 1016.1
20260830133941 0 13 1.0 1.0 0.00 0.00 0.00
20260830133833 0 40 0.0 0.0 0.00 0.00 0.00
20260830130338 76 38 0.0 1.0 0.00 0.00 0.00 100 1015.7
20260830130241 76 29 0.0 1.0 0.00 0.00 0.00 100 1015.7
20260830130214 76 42 0.0 1.0 0.00 0.00 0.00 100 1015.7
20260830130141 76 44 0.0 1.0 0.00 0.00 0.00 100 1015.7
20260830130037 75 0 0.0 1.0 0.00 0.00 0.00 100 1015.7
20260830125932 75 4 0.0 1.0 0.00 0.00 0.00 100 1015.7
20260830125828 75 0 0.0 2.0 0.00 0.00 0.00 100 1015.7
20260830125723 75 55 0.0 2.0 0.00 0.00 0.00 100 1015.7
20260830125712 75 42 0.0 2.0 0.00 0.00 0.00 100 1015.7
20260830125630 75 22 0.0 2.0 0.00 0.00 0.00 100 1015.7
20260830125521 75 21 0.0 2.0 0.00 0.00 0.00 100 1015.7
20260830125419 75 349 0.0 2.0 0.00 0.00 0.00 100 1015.7
20260830125319 75 0 0.0 2.0 0.00 0.00 0.00 100 1015.7
20260830125221 75 0 0.0 2.0 0.00 0.00 0.00 100 1015.7
20260830125112 75 18 0.0 2.0 0.00 0.00 0.00 100 1015.7
20260830125005 75 35 0.0 2.0 0.00 0.00 0.00 100 1015.7
20260830124911 75 42 0.0 1.0 0.00 0.00 0.00 100 1015.7
20260830124759 75 2 0.0 1.0 0.00 0.00 0.00 100 1015.7
20260830124708 75 96 0.0 1.0 0.00 0.00 0.00 100 1015.7
20260830124650 74 348 0.0 1.0 0.00 0.00 0.00 100 1015.7
20260830124549 74 108 0.0 1.0 0.00 0.00 0.00 100 1015.7
20260830124451 74 0 0.0 1.0 0.00 0.00 0.00 100 1015.7
20260830124427 74 315 0.0 1.0 0.00 0.00 0.00 100 1015.7
20260830124347 74 83 0.0 1.0 0.00 0.00 0.00 100 1015.7
20260830124315 74 334 0.0 1.0 0.00 0.00 0.00 100 1015.7
20260830124143 74 11 0.0 1.0 0.00 0.00 0.00 100 1015.7
20260830124043 74 0 0.0 1.0 0.00 0.00 0.00 100 1015.6
20260830123937 74 39 0.0 1.0 0.00 0.00 0.00 100 1015.6
20260830123834 74 338 0.0 2.0 0.00 0.00 0.00 100 1015.6
20260830123719 74 18 0.0 2.0 0.00 0.00 0.00 100 1015.6
20260830123706 74 84 0.0 2.0 0.00 0.00 0.00 100 1015.6
20260830123624 74 0 0.0 2.0 0.00 0.00 0.00 100 1015.6
20260830123536 74 0 0.0 2.0 0.00 0.00 0.00 100 1015.6
20260830123434 74 0 0.0 2.0 0.00 0.00 0.00 100 1015.5
20260830123426 74 22 0.0 2.0 0.00 0.00 0.00 100 1015.6
20260830123308 74 0 0.0 2.0 0.00 0.00 0.00 100 1015.6
20260830123158 74 0 0.0 2.0 0.00 0.00 0.00 100 1015.5
20260830123052 74 332 0.0 2.0 0.00 0.00 0.00 100 1015.5
20260830122949 74 3 0.0 2.0 0.00 0.00 0.00 100 1015.5
20260830122918 73 0 0.0 1.0 0.00 0.00 0.00 100 1015.5
20260830122847 73 19 0.0 2.0 0.00 0.00 0.00 100 1015.5
20260830122805 73 0 0.0 1.0 0.00 0.00 0.00 100 1015.5
20260830122651 73 0 0.0 1.0 0.00 0.00 0.00 100 1015.5
20260830122634 73 0 0.0 1.0 0.00 0.00 0.00 100 1015.5
20260830122542 73 0 0.0 1.0 0.00 0.00 0.00 100 1015.5
20260830122533 73 230 0.0 1.0 0.00 0.00 0.00 100 1015.5
20260830122331 73 280 0.0 1.0 0.00 0.00 0.00 100 1015.5
20260830122306 73 0 0.0 1.0 0.00 0.00 0.00 100 1015.5
20260830122104 73 0 0.0 1.0 0.00 0.00 0.00 100 1015.5
20260830121958 73 0 0.0 1.0 0.00 0.00 0.00 100 1015.5
20260830121859 73 324 0.0 1.0 0.00 0.00 0.00 100 1015.5
20260830121756 73 313 0.0 1.0 0.00 0.00 0.00 100 1015.5
20260830121656 73 0 0.0 1.0 0.00 0.00 0.00 100 1015.5
20260830121645 73 7 0.0 1.0 0.00 0.00 0.00 100 1015.5
20260830121553 73 39 0.0 1.0 0.00 0.00 0.00 100 1015.5
20260830121432 73 346 0.0 1.0 0.00 0.00 0.00 100 1015.5
20260830121332 73 0 0.0 1.0 0.00 0.00 0.00 100 1015.5
20260830121222 73 29 0.0 1.0 0.00 0.00 0.00 100 1015.5
20260830121142 73 57 0.0 1.0 0.00 0.00 0.00 100 1015.5
20260830121121 73 303 0.0 1.0 0.00 0.00 0.00 100 1015.5
20260830121020 73 353 0.0 1.0 0.00 0.00 0.00 100 1015.5
20260830120913 73 34 0.0 1.0 0.00 0.00 0.00 100 1015.5
20260830120810 73 0 0.0 1.0 0.00 0.00 0.00 100 1015.5
20260830120710 73 16 0.0 1.0 0.00 0.00 0.00 100 1015.5
20260830120639 73 0 0.0 1.0 0.00 0.00 0.00 100 1015.5
20260830120608 73 23 0.0 1.0 0.00 0.00 0.00 100 1015.5
20260830120505 73 354 0.0 1.0 0.00 0.00 0.00 100 1015.5
20260830120402 73 6 0.0 1.0 0.00 0.00 0.00 100 1015.5
20260830120302 73 344 0.0 1.0 0.00 0.00 0.00 100 1015.5
20260830120140 73 0 0.0 1.0 0.00 0.00 0.00 100 1015.4
20260830120058 73 40 0.0 1.0 0.00 0.00 0.00 100 1015.4
20260830115950 73 321 0.0 1.0 0.00 0.00 0.00 100 1015.4
20260830115843 73 359 0.0 1.0 0.00 0.00 0.00 100 1015.4
20260830115744 73 19 0.0 1.0 0.00 0.00 0.00 100 1015.4
20260830115644 73 38 0.0 1.0 0.00 0.00 0.00 100 1015.4
20260830115637 73 51 0.0 1.0 0.00 0.00 0.00 100 1015.4
20260830115541 73 50 0.0 1.0 0.00 0.00 0.00 100 1015.4
20260830115442 73 7 0.0 1.0 0.00 0.00 0.00 100 1015.3
20260830115338 73 46 0.0 1.0 0.00 0.00 0.00 100 1015.3
20260830115238 73 16 0.0 1.0 0.00 0.00 0.00 100 1015.3
20260830115139 73 6 0.0 1.0 0.00 0.00 0.00 100 1015.3
20260830115134 73 31 0.0 1.0 0.00 0.00 0.00 100 1015.3
20260830115041 73 357 0.0 1.0 0.00 0.00 0.00 100 1015.3
20260830114936 73 10 0.0 1.0 0.00 0.00 0.00 100 1015.3
20260830114832 73 339 0.0 1.0 0.00 0.00 0.00 100 1015.3
20260830114733 73 24 0.0 1.0 0.00 0.00 0.00 100 1015.3
20260830114641 73 352 0.0 1.0 0.00 0.00 0.00 100 1015.3
20260830114637 73 11 0.0 1.0 0.00 0.00 0.00 100 1015.3
20260830114523 73 307 0.0 1.0 0.00 0.00 0.00 100 1015.3
20260830114420 73 336 0.0 1.0 0.00 0.00 0.00 100 1015.3
20260830114356 73 0 0.0 1.0 0.00 0.00 0.00 100 1015.3
20260830114318 73 67 0.0 1.0 0.00 0.00 0.00 100 1015.3
20260830114242 73 0 0.0 1.0 0.00 0.00 0.00 100 1015.3
20260830114122 73 0 0.0 1.0 0.00 0.00 0.00 100 1015.3
20260830114012 73 0 0.0 1.0 0.00 0.00 0.00 100 1015.3
20260830113911 73 0 0.0 1.0 0.00 0.00 0.00 100 1015.3
20260830113853 73 325 0.0 1.0 0.00 0.00 0.00 100 1015.3
20260830113811 73 299 0.0 1.0 0.00 0.00 0.00 100 1015.3
20260830113739 73 0 0.0 1.0 0.00 0.00 0.00 100 1015.3
20260830113606 73 334 0.0 1.0 0.00 0.00 0.00 100 1015.3
20260830113548 73 108 0.0 1.0 0.00 0.00 0.00 100 1015.3
20260830113503 73 37 0.0 1.0 0.00 0.00 0.00 100 1015.3
20260830113433 73 23 0.0 1.0 0.00 0.00 0.00 100 1015.3
20260830113259 73 0 0.0 1.0 0.00 0.00 0.00 100 1015.3
20260830113214 73 333 1.0 1.0 0.00 0.00 0.00 100 1015.3
20260830113208 73 3 1.0 1.0 0.00 0.00 0.00 100 1015.3
20260830113100 73 354 0.0 1.0 0.00 0.00 0.00 100 1015.3
20260830113000 73 348 0.0 1.0 0.00 0.00 0.00 100 1015.3
20260830112945 73 0 0.0 1.0 0.00 0.00 0.00 100 1015.3
20260830112759 73 0 0.0 1.0 0.00 0.00 0.00 100 1015.3
20260830112725 73 10 0.0 1.0 0.00 0.00 0.00 100 1015.3
20260830112719 73 12 0.0 1.0 0.00 0.00 0.00 100 1015.3
20260830112544 73 10 0.0 1.0 0.00 0.00 0.00 100 1015.3
20260830112458 73 8 0.0 1.0 0.00 0.00 0.00 100 1015.3
20260830112339 73 22 0.0 1.0 0.00 0.00 0.00 100 1015.3
20260830112239 73 85 0.0 1.0 0.00 0.00 0.00 100 1015.3
20260830112117 73 0 0.0 1.0 0.00 0.00 0.00 100 1015.3
20260830112014 73 31 0.0 1.0 0.00 0.00 0.00 100 1015.2
20260830111912 73 243 0.0 1.0 0.00 0.00 0.00 100 1015.2
20260830111811 73 0 0.0 1.0 0.00 0.00 0.00 100 1015.2
20260830111711 73 35 0.0 1.0 0.00 0.00 0.00 100 1015.2
20260830111631 73 357 0.0 1.0 0.00 0.00 0.00 100 1015.2
20260830111612 73 273 0.0 1.0 0.00 0.00 0.00 100 1015.2
20260830111517 73 0 0.0 1.0 0.00 0.00 0.00 100 1015.2
20260830111408 73 0 0.0 1.0 0.00 0.00 0.00 100 1015.2
20260830111311 73 341 0.0 1.0 0.00 0.00 0.00 100 1015.2
20260830111215 73 39 0.0 1.0 0.00 0.00 0.00 100 1015.2
20260830111128 73 21 0.0 1.0 0.00 0.00 0.00 100 1015.2
20260830111109 73 0 0.0 1.0 0.00 0.00 0.00 100 1015.2
20260830111000 73 72 0.0 1.0 0.00 0.00 0.00 100 1015.2
20260830110859 73 0 0.0 1.0 0.00 0.00 0.00 100 1015.2
20260830110757 73 0 0.0 1.0 0.00 0.00 0.00 100 1015.1
20260830110657 73 37 0.0 1.0 0.00 0.00 0.00 100 1015.1
20260830110628 73 0 0.0 1.0 0.00 0.00 0.00 100 1015.1
20260830110548 73 0 0.0 1.0 0.00 0.00 0.00 100 1015.1
20260830110448 73 12 0.0 1.0 0.00 0.00 0.00 100 1015.1
20260830110347 73 0 0.0 1.0 0.00 0.00 0.00 100 1015.1
20260830110247 73 10 0.0 1.0 0.00 0.00 0.00 100 1015.2
20260830110150 73 342 0.0 1.0 0.00 0.00 0.00 100 1015.2
20260830110125 73 0 0.0 1.0 0.00 0.00 0.00 100 1015.2
20260830110044 73 0 0.0 1.0 0.00 0.00 0.00 100 1015.2
20260830105939 73 0 0.0 1.0 0.00 0.00 0.00 100 1015.2
20260830105839 73 0 0.0 1.0 0.00 0.00 0.00 100 1015.1
20260830105738 73 18 0.0 1.0 0.00 0.00 0.00 100 1015.1
20260830105630 73 0 0.0 1.0 0.00 0.00 0.00 100 1015.1
20260830105539 73 0 0.0 1.0 0.00 0.00 0.00 100 1015.1
20260830105439 73 0 0.0 1.0 0.00 0.00 0.00 100 1015.1
20260830105339 73 0 0.0 1.0 0.00 0.00 0.00 100 1015.1
20260830105239 73 0 0.0 1.0 0.00 0.00 0.00 100 1015.1
20260830105139 73 63 0.0 1.0 0.00 0.00 0.00 100 1015.1
20260830105122 73 39 0.0 1.0 0.00 0.00 0.00 100 1015.1
20260830105036 73 29 0.0 1.0 0.00 0.00 0.00 100 1015.1
20260830104926 73 298 0.0 1.0 0.00 0.00 0.00 100 1015.1
20260830104827 73 0 0.0 1.0 0.00 0.00 0.00 100 1015.1
20260830104727 73 0 0.0 1.0 0.00 0.00 0.00 100 1015.1
20260830104622 73 0 0.0 1.0 0.00 0.00 0.00 100 1015.1
20260830104527 73 302 0.0 1.0 0.00 0.00 0.00 100 1015.1
20260830104427 73 0 0.0 1.0 0.00 0.00 0.00 100 1015.1
20260830104327 73 0 0.0 1.0 0.00 0.00 0.00 100 1015.1
20260830104314 73 0 0.0 1.0 0.00 0.00 0.00 100 1015.1
20260830104224 73 252 0.0 1.0 0.00 0.00 0.00 100 1015.1
20260830104201 73 302 0.0 1.0 0.00 0.00 0.00 100 1015.1
20260830104018 73 343 0.0 1.0 0.00 0.00 0.00 100 1015.1
20260830103948 73 0 0.0 1.0 0.00 0.00 0.00 100 1015.1
20260830103811 73 304 0.0 1.0 0.00 0.00 0.00 100 1015.1
20260830103720 73 306 0.0 1.0 0.00 0.00 0.00 100 1015.1
20260830103605 73 0 0.0 1.0 0.00 0.00 0.00 100 1015.1
20260830103509 73 349 0.0 1.0 0.00 0.00 0.00 100 1015.1
20260830103355 73 0 0.0 1.0 0.00 0.00 0.00 100 1015.1
20260830103254 73 37 0.0 1.0 0.00 0.00 0.00 100 1015.1
20260830103154 73 0 0.0 1.0 0.00 0.00 0.00 100 1015.1
20260830103111 73 336 0.0 1.0 0.00 0.00 0.00 100 1015.1
20260830103052 73 11 0.0 1.0 0.00 0.00 0.00 100 1015.0
20260830102951 73 342 0.0 1.0 0.00 0.00 0.00 100 1015.0
20260830102851 73 354 0.0 1.0 0.00 0.00 0.00 100 1015.0
20260830102832 73 0 0.0 1.0 0.00 0.00 0.00 100 1015.0
20260830102744 73 0 0.0 1.0 0.00 0.00 0.00 100 1015.0
20260830102716 73 301 0.0 1.0 0.00 0.00 0.00 100 1015.0
20260830102542 73 0 0.0 1.0 0.00 0.00 0.00 100 1015.0
20260830102442 73 287 0.0 1.0 0.00 0.00 0.00 100 1015.0
20260830102348 73 358 0.0 1.0 0.00 0.00 0.00 100 1015.0
20260830102242 73 317 0.0 1.0 0.00 0.00 0.00 100 1015.0
20260830102143 73 0 0.0 1.0 0.00 0.00 0.00 100 1015.0
20260830102111 73 1 0.0 1.0 0.00 0.00 0.00 100 1015.0
20260830102042 73 337 0.0 1.0 0.00 0.00 0.00 100 1015.0
20260830101943 73 21 0.0 1.0 0.00 0.00 0.00 100 1015.0
20260830101843 73 0 0.0 1.0 0.00 0.00 0.00 100 1015.0
20260830101739 73 0 0.0 1.0 0.00 0.00 0.00 100 1015.0
20260830101611 73 0 0.0 1.0 0.00 0.00 0.00 100 1015.0
20260830101527 73 321 0.0 1.0 0.00 0.00 0.00 100 1015.0
20260830101425 73 305 0.0 1.0 0.00 0.00 0.00 100 1015.0
20260830101324 73 69 0.0 1.0 0.00 0.00 0.00 100 1015.0
20260830101225 73 309 0.0 2.0 0.00 0.00 0.00 100 1015.0
20260830101129 73 322 0.0 2.0 0.00 0.00 0.00 100 1015.0
20260830101110 73 6 0.0 2.0 0.00 0.00 0.00 100 1015.0
20260830101027 73 0 0.0 2.0 0.00 0.00 0.00 100 1014.9
20260830100921 73 326 0.0 2.0 0.00 0.00 0.00 100 1014.9
20260830100832 73 21 0.0 2.0 0.00 0.00 0.00 100 1015.0
20260830100822 73 0 0.0 2.0 0.00 0.00 0.00 100 1014.9
20260830100722 73 350 0.0 2.0 0.00 0.00 0.00 100 1014.9
20260830100716 73 21 0.0 2.0 0.00 0.00 0.00 100 1015.0
20260830100503 73 2 0.0 2.0 0.00 0.00 0.00 100 1015.0
20260830100403 73 25 0.0 2.0 0.00 0.00 0.00 100 1015.0
20260830100303 73 23 0.0 2.0 0.00 0.00 0.00 100 1015.0
20260830100204 73 23 0.0 1.0 0.00 0.00 0.00 100 1014.9
20260830100057 73 350 0.0 1.0 0.00 0.00 0.00 100 1014.9
20260830100010 73 16 0.0 1.0 0.00 0.00 0.00 100 1014.9
20260830095901 73 93 0.0 1.0 0.00 0.00 0.00 100 1014.9
20260830095801 73 352 0.0 1.0 0.00 0.00 0.00 100 1014.9
20260830095701 73 318 0.0 1.0 0.00 0.00 0.00 100 1014.9
20260830095559 73 0 0.0 1.0 0.00 0.00 0.00 100 1014.9
20260830095447 73 0 0.0 1.0 0.00 0.00 0.00 100 1014.9
20260830095340 73 3 0.0 1.0 0.00 0.00 0.00 100 1014.9
20260830095240 73 291 0.0 1.0 0.00 0.00 0.00 100 1014.9
20260830095137 73 331 0.0 2.0 0.00 0.00 0.00 100 1014.9
20260830095045 74 281 0.0 2.0 0.00 0.00 0.00 100 1014.9
20260830095028 74 0 0.0 2.0 0.00 0.00 0.00 100 1014.9
20260830094928 74 0 0.0 2.0 0.00 0.00 0.00 100 1014.9
20260830094828 74 0 0.0 2.0 0.00 0.00 0.00 100 1014.9
20260830094801 74 288 0.0 2.0 0.00 0.00 0.00 100 1014.9
20260830094725 74 293 0.0 2.0 0.00 0.00 0.00 100 1014.9
20260830094644 74 0 0.0 2.0 0.00 0.00 0.00 100 1014.9
20260830094518 74 311 0.0 2.0 0.00 0.00 0.00 100 1014.9
20260830094405 74 0 0.0 2.0 0.00 0.00 0.00 100 1014.9
20260830094304 74 24 0.0 2.0 0.00 0.00 0.00 100 1014.9
20260830094204 74 300 0.0 2.0 0.00 0.00 0.00 100 1014.9
20260830094106 74 0 0.0 2.0 0.00 0.00 0.00 100 1014.9
20260830094035 74 314 0.0 2.0 0.00 0.00 0.00 100 1014.9
20260830094005 73 14 0.0 2.0 0.00 0.00 0.00 100 1014.9
20260830093901 73 0 0.0 2.0 0.00 0.00 0.00 100 1014.9
20260830093746 73 19 0.0 2.0 0.00 0.00 0.00 100 1014.8
20260830093647 73 0 0.0 2.0 0.00 0.00 0.00 100 1014.8
20260830093547 73 281 0.0 2.0 0.00 0.00 0.00 100 1014.8
20260830093527 73 293 0.0 1.0 0.00 0.00 0.00 100 1014.8
20260830093445 73 0 0.0 1.0 0.00 0.00 0.00 100 1014.8
20260830093341 73 317 0.0 1.0 0.00 0.00 0.00 100 1014.8
20260830093240 73 0 0.0 1.0 0.00 0.00 0.00 100 1014.8
20260830093140 73 0 0.0 1.0 0.00 0.00 0.00 100 1014.8
20260830093032 73 308 0.0 1.0 0.00 0.00 0.00 100 1014.8
20260830093027 73 283 0.0 1.0 0.00 0.00 0.00 100 1014.8
20260830092931 73 325 0.0 1.0 0.00 0.00 0.00 100 1014.8
20260830092831 73 0 0.0 1.0 0.00 0.00 0.00 100 1014.8
20260830092731 73 7 0.0 1.0 0.00 0.00 0.00 100 1014.8
20260830092626 73 353 0.0 1.0 0.00 0.00 0.00 100 1014.8
20260830092606 73 308 0.0 1.0 0.00 0.00 0.00 100 1014.8
20260830092528 73 308 0.0 1.0 0.00 0.00 0.00 100 1014.8
20260830092446 74 0 0.0 1.0 0.00 0.00 0.00 100 1014.8
20260830092413 73 341 0.0 1.0 0.00 0.00 0.00 100 1014.8
20260830092327 73 359 0.0 1.0 0.00 0.00 0.00 100 1014.8
20260830092214 74 25 0.0 1.0 0.00 0.00 0.00 100 1014.8
20260830092113 74 155 0.0 1.0 0.00 0.00 0.00 100 1014.8
20260830092107 74 13 0.0 1.0 0.00 0.00 0.00 100 1014.8
20260830091907 74 350 0.0 1.0 0.00 0.00 0.00 100 1014.8
20260830091807 74 280 0.0 1.0 0.00 0.00 0.00 100 1014.8
20260830091705 74 0 0.0 1.0 0.00 0.00 0.00 100 1014.8
20260830091605 74 0 0.0 1.0 0.00 0.00 0.00 100 1014.8
20260830091505 74 358 0.0 1.0 0.00 0.00 0.00 100 1014.8
20260830091454 74 0 0.0 1.0 0.00 0.00 0.00 100 1014.8
20260830091401 74 265 0.0 1.0 0.00 0.00 0.00 100 1014.8
20260830091257 74 324 0.0 1.0 0.00 0.00 0.00 100 1014.8
20260830091159 74 0 0.0 1.0 0.00 0.00 0.00 100 1014.8
20260830091053 74 267 0.0 1.0 0.00 0.00 0.00 100 1014.8
20260830090954 74 308 0.0 1.0 0.00 0.00 0.00 100 1014.8
20260830090946 74 0 0.0 1.0 0.00 0.00 0.00 100 1014.8
20260830090847 74 314 0.0 1.0 0.00 0.00 0.00 100 1014.8
20260830090747 74 30 0.0 1.0 0.00 0.00 0.00 100 1014.8
20260830090640 74 0 0.0 1.0 0.00 0.00 0.00 100 1014.8
20260830090540 74 0 0.0 1.0 0.00 0.00 0.00 100 1014.8
20260830090454 74 0 0.0 1.0 0.00 0.00 0.00 100 1014.8
20260830090440 74 357 0.0 1.0 0.00 0.00 0.00 100 1014.8
20260830090340 74 0 0.0 1.0 0.00 0.00 0.00 100 1014.8
20260830090240 74 346 0.0 1.0 0.00 0.00 0.00 100 1014.8
20260830090148 74 0 0.0 1.0 0.00 0.00 0.00 100 1014.8
20260830090040 74 0 0.0 1.0 0.00 0.00 0.00 100 1014.8
20260830085954 74 131 0.0 1.0 0.00 0.00 0.00 100 1014.8
20260830085941 74 38 0.0 1.0 0.00 0.00 0.00 100 1014.8
20260830085828 74 0 0.0 1.0 0.00 0.00 0.00 100 1014.8
20260830085725 74 220 0.0 1.0 0.00 0.00 0.00 100 1014.8
20260830085706 74 0 0.0 1.0 0.00 0.00 0.00 100 1014.8
20260830085622 74 9 0.0 1.0 0.00 0.00 0.00 100 1014.8
20260830085553 74 9 0.0 1.0 0.00 0.00 0.00 100 1014.8
20260830085418 74 9 0.0 1.0 0.00 0.00 0.00 100 1014.8
20260830085311 74 342 0.0 1.0 0.00 0.00 0.00 100 1014.8
20260830085207 74 338 0.0 1.0 0.00 0.00 0.00 100 1014.8
20260830085105 74 334 0.0 1.0 0.00 0.00 0.00 100 1014.8
20260830085001 74 9 0.0 1.0 0.00 0.00 0.00 100 1014.8
20260830084946 74 343 0.0 1.0 0.00 0.00 0.00 100 1014.8
20260830084901 74 0 0.0 1.0 0.00 0.00 0.00 100 1014.8
20260830084752 74 6 0.0 1.0 0.00 0.00 0.00 100 1014.8
20260830084647 74 321 0.0 1.0 0.00 0.00 0.00 100 1014.8
20260830084549 74 335 0.0 1.0 0.00 0.00 0.00 100 1014.8
20260830084447 74 343 0.0 1.0 0.00 0.00 0.00 100 1014.8
20260830084344 74 0 0.0 1.0 0.00 0.00 0.00 100 1014.8
20260830084244 74 313 0.0 1.0 0.00 0.00 0.00 100 1014.8
20260830084144 74 0 0.0 1.0 0.00 0.00 0.00 100 1014.8
20260830084044 74 0 0.0 1.0 0.00 0.00 0.00 100 1014.8
20260830083941 74 310 0.0 1.0 0.00 0.00 0.00 100 1014.8
20260830083839 74 19 0.0 1.0 0.00 0.00 0.00 100 1014.8
20260830083737 74 0 0.0 1.0 0.00 0.00 0.00 100 1014.8
20260830083637 74 85 0.0 1.0 0.00 0.00 0.00 100 1014.8
20260830083538 74 0 0.0 1.0 0.00 0.00 0.00 100 1014.8
20260830083435 74 255 0.0 1.0 0.00 0.00 0.00 100 1014.8
20260830083332 74 338 0.0 1.0 0.00 0.00 0.00 100 1014.8
20260830083225 74 0 0.0 1.0 0.00 0.00 0.00 100 1014.8
20260830083125 74 0 0.0 1.0 0.00 0.00 0.00 100 1014.8
20260830083023 74 257 0.0 1.0 0.00 0.00 0.00 100 1014.8
20260830082939 74 246 0.0 1.0 0.00 0.00 0.00 100 1014.8
20260830082923 74 0 0.0 1.0 0.00 0.00 0.00 100 1014.8
20260830082820 74 0 0.0 1.0 0.00 0.00 0.00 100 1014.8
20260830082708 74 350 0.0 1.0 0.00 0.00 0.00 100 1014.8
20260830082654 74 0 0.0 1.0 0.00 0.00 0.00 100 1014.8
20260830082609 74 0 0.0 1.0 0.00 0.00 0.00 100 1014.8
20260830082540 74 183 0.0 1.0 0.00 0.00 0.00 100 1014.8
20260830082402 74 297 0.0 1.0 0.00 0.00 0.00 100 1014.8
20260830082306 74 0 0.0 1.0 0.00 0.00 0.00 100 1014.8
20260830082202 74 0 0.0 1.0 0.00 0.00 0.00 100 1014.8
20260830082059 74 209 0.0 1.0 0.00 0.00 0.00 100 1014.9
20260830081958 74 0 0.0 1.0 0.00 0.00 0.00 100 1014.9
20260830081931 74 270 0.0 1.0 0.00 0.00 0.00 100 1014.9
20260830081847 74 0 0.0 1.0 0.00 0.00 0.00 100 1014.9
20260830081747 74 317 0.0 1.0 0.00 0.00 0.00 100 1014.9
20260830081647 74 0 0.0 1.0 0.00 0.00 0.00 100 1014.9
20260830081546 74 334 0.0 1.0 0.00 0.00 0.00 100 1014.9
20260830081444 74 258 0.0 1.0 0.00 0.00 0.00 100 1014.9
20260830081427 74 0 0.0 1.0 0.00 0.00 0.00 100 1014.9
20260830081342 74 39 0.0 1.0 0.00 0.00 0.00 100 1014.9
20260830081242 74 0 0.0 1.0 0.00 0.00 0.00 100 1014.9
20260830081148 74 0 0.0 1.0 0.00 0.00 0.00 100 1014.9
20260830081141 74 18 0.0 1.0 0.00 0.00 0.00 100 1014.9
20260830081036 74 292 0.0 1.0 0.00 0.00 0.00 100 1014.9
20260830081030 74 0 0.0 1.0 0.00 0.00 0.00 100 1014.9
20260830080809 74 26 0.0 1.0 0.00 0.00 0.00 100 1014.9
20260830080703 74 340 0.0 1.0 0.00 0.00 0.00 100 1014.9
20260830080606 74 64 0.0 1.0 0.00 0.00 0.00 100 1014.9
20260830080520 74 347 0.0 1.0 0.00 0.00 0.00 100 1014.9
20260830080457 74 0 0.0 1.0 0.00 0.00 0.00 100 1014.9
20260830080349 74 165 0.0 1.0 0.00 0.00 0.00 100 1014.9
20260830075917 74 0 0.0 1.0 0.00 0.00 0.00 100 1014.9
20260830075910 74 251 0.0 1.0 0.00 0.00 0.00 100 1014.9
20260830075714 74 0 0.0 1.0 0.00 0.00 0.00 100 1014.9
20260830075614 74 0 0.0 1.0 0.00 0.00 0.00 100 1014.9
20260830075514 74 21 0.0 1.0 0.00 0.00 0.00 100 1014.9
20260830075408 74 280 0.0 1.0 0.00 0.00 0.00 100 1014.9
20260830075308 74 6 0.0 1.0 0.00 0.00 0.00 100 1014.9
20260830075258 74 0 0.0 1.0 0.00 0.00 0.00 100 1014.9
20260830075206 74 0 0.0 1.0 0.00 0.00 0.00 100 1014.9
20260830075107 74 11 0.0 1.0 0.00 0.00 0.00 100 1014.9
20260830075002 74 0 0.0 1.0 0.00 0.00 0.00 100 1014.9
20260830074903 74 268 0.0 1.0 0.00 0.00 0.00 100 1014.9
20260830074800 74 0 0.0 1.0 0.00 0.00 0.00 100 1014.9
20260830074645 74 282 0.0 1.0 0.00 0.00 0.00 100 1014.9
20260830074544 74 311 0.0 1.0 0.00 0.00 0.00 100 1014.9
20260830074444 74 16 0.0 1.0 0.00 0.00 0.00 100 1014.9
20260830074345 74 354 0.0 1.0 0.00 0.00 0.00 100 1014.9
20260830074246 74 0 0.0 1.0 0.00 0.00 0.00 100 1014.9
20260830074241 74 355 0.0 1.0 0.00 0.00 0.00 100 1014.9
20260830074141 74 0 0.0 1.0 0.00 0.00 0.00 100 1014.9
20260830074042 74 336 0.0 1.0 0.00 0.00 0.00 100 1014.9
20260830073939 74 0 0.0 1.0 0.00 0.00 0.00 100 1014.9
20260830073839 74 0 0.0 1.0 0.00 0.00 0.00 100 1014.9
20260830073746 74 260 0.0 1.0 0.00 0.00 0.00 100 1014.9
20260830073738 74 331 0.0 1.0 0.00 0.00 0.00 100 1014.9
20260830073639 74 63 0.0 1.0 0.00 0.00 0.00 100 1014.9
20260830073539 74 0 0.0 1.0 0.00 0.00 0.00 100 1014.9
20260830073439 74 346 0.0 1.0 0.00 0.00 0.00 100 1014.9
20260830073329 74 318 0.0 1.0 0.00 0.00 0.00 100 1014.9
20260830073231 74 0 0.0 1.0 0.00 0.00 0.00 100 1014.9
20260830073123 74 102 0.0 1.0 0.00 0.00 0.00 100 1014.9
20260830073023 74 13 0.0 1.0 0.00 0.00 0.00 100 1015.0
20260830072924 74 273 0.0 1.0 0.00 0.00 0.00 100 1015.0
20260830072823 74 0 0.0 1.0 0.00 0.00 0.00 100 1015.0
20260830072724 74 0 0.0 1.0 0.00 0.00 0.00 100 1015.0
20260830072624 74 282 0.0 2.0 0.00 0.00 0.00 100 1015.0
20260830072525 74 0 0.0 2.0 0.00 0.00 0.00 100 1015.0
20260830072423 74 0 0.0 2.0 0.00 0.00 0.00 100 1015.0
20260830072324 75 336 0.0 2.0 0.00 0.00 0.00 100 1014.9
20260830072243 75 324 0.0 2.0 0.00 0.00 0.00 100 1014.9
20260830072219 75 59 0.0 2.0 0.00 0.00 0.00 100 1014.9
20260830072117 75 311 0.0 2.0 0.00 0.00 0.00 100 1014.9
20260830072012 74 288 0.0 2.0 0.00 0.00 0.00 100 1014.9
20260830071911 74 352 0.0 2.0 0.00 0.00 0.00 100 1014.9
20260830071811 74 0 0.0 2.0 0.00 0.00 0.00 100 1014.9
20260830071743 74 292 0.0 2.0 0.00 0.00 0.00 100 1014.9
20260830071709 74 297 0.0 2.0 0.00 0.00 0.00 100 1014.9
20260830071609 74 0 0.0 1.0 0.00 0.00 0.00 100 1014.9
20260830071508 74 0 0.0 1.0 0.00 0.00 0.00 100 1015.0
20260830071408 74 0 0.0 1.0 0.00 0.00 0.00 100 1015.0
20260830071306 74 29 0.0 1.0 0.00 0.00 0.00 100 1015.0
20260830071244 74 0 0.0 1.0 0.00 0.00 0.00 100 1015.0
20260830071206 75 258 0.0 1.0 0.00 0.00 0.00 100 1015.0
20260830071100 75 0 0.0 1.0 0.00 0.00 0.00 100 1015.0
20260830070957 75 3 0.0 1.0 0.00 0.00 0.00 100 1015.1
20260830070857 75 0 0.0 1.0 0.00 0.00 0.00 100 1015.1
20260830070757 75 0 0.0 1.0 0.00 0.00 0.00 100 1015.1
20260830070740 75 351 0.0 1.0 0.00 0.00 0.00 100 1015.1
20260830070657 75 0 0.0 1.0 0.00 0.00 0.00 100 1015.1
20260830070548 75 0 0.0 1.0 0.00 0.00 0.00 100 1015.1
20260830070448 75 0 0.0 1.0 0.00 0.00 0.00 100 1015.1
20260830070348 75 285 0.0 1.0 0.00 0.00 0.00 100 1015.1
20260830070245 75 348 0.0 1.0 0.00 0.00 0.00 100 1015.1
20260830070238 75 304 0.0 1.0 0.00 0.00 0.00 100 1015.1
20260830070145 75 0 0.0 1.0 0.00 0.00 0.00 100 1015.1
20260830070045 75 54 0.0 1.0 0.00 0.00 0.00 100 1015.1
20260830065945 75 0 0.0 1.0 0.00 0.00 0.00 100 1015.1
20260830065830 75 0 0.0 1.0 0.00 0.00 0.00 100 1015.1
20260830065732 75 100 0.0 1.0 0.00 0.00 0.00 100 1015.1
20260830065727 75 29 0.0 1.0 0.00 0.00 0.00 100 1015.1
20260830065624 75 44 0.0 1.0 0.00 0.00 0.00 100 1015.1
20260830065521 75 341 0.0 1.0 0.00 0.00 0.00 100 1015.1
20260830065421 75 336 0.0 1.0 0.00 0.00 0.00 100 1015.1
20260830065322 75 232 0.0 1.0 0.00 0.00 0.00 100 1015.1
20260830065229 75 0 0.0 1.0 0.00 0.00 0.00 100 1015.1
20260830065218 75 350 0.0 1.0 0.00 0.00 0.00 100 1015.1
20260830065118 75 0 0.0 1.0 0.00 0.00 0.00 100 1015.1
20260830065018 75 0 0.0 1.0 0.00 0.00 0.00 100 1015.1
20260830064919 75 269 0.0 1.0 0.00 0.00 0.00 100 1015.1
20260830064818 75 0 0.0 1.0 0.00 0.00 0.00 100 1015.1
20260830064728 75 0 0.0 1.0 0.00 0.00 0.00 100 1015.1
20260830064706 75 0 0.0 1.0 0.00 0.00 0.00 100 1015.1
20260830064601 75 33 0.0 1.0 0.00 0.00 0.00 100 1015.1
20260830064500 75 0 0.0 1.0 0.00 0.00 0.00 100 1015.1
20260830064401 75 14 0.0 1.0 0.00 0.00 0.00 100 1015.1
20260830064301 75 0 0.0 1.0 0.00 0.00 0.00 100 1015.1
20260830064229 75 52 0.0 1.0 0.00 0.00 0.00 100 1015.1
20260830064200 75 52 0.0 1.0 0.00 0.00 0.00 100 1015.1
20260830064055 75 41 0.0 1.0 0.00 0.00 0.00 100 1015.1
20260830063951 75 8 0.0 1.0 0.00 0.00 0.00 100 1015.1
20260830063840 75 0 0.0 1.0 0.00 0.00 0.00 100 1015.0
20260830063729 75 0 0.0 1.0 0.00 0.00 0.00 100 1015.0
20260830063634 75 310 0.0 1.0 0.00 0.00 0.00 100 1015.0
20260830063533 75 0 0.0 1.0 0.00 0.00 0.00 100 1015.0
20260830063431 75 285 0.0 1.0 0.00 0.00 0.00 100 1014.9
20260830063331 75 0 0.0 1.0 0.00 0.00 0.00 100 1014.9
20260830063230 75 0 0.0 1.0 0.00 0.00 0.00 100 1014.9
20260830063130 75 243 0.0 1.0 0.00 0.00 0.00 100 1014.9
20260830063031 75 346 0.0 1.0 0.00 0.00 0.00 100 1014.9
20260830062925 75 22 0.0 1.0 0.00 0.00 0.00 100 1014.9
20260830062820 75 313 0.0 1.0 0.00 0.00 0.00 100 1014.9
20260830062729 75 0 0.0 1.0 0.00 0.00 0.00 100 1014.9
20260830062713 75 13 0.0 1.0 0.00 0.00 0.00 100 1014.9
20260830062611 75 15 0.0 1.0 0.00 0.00 0.00 100 1014.9
20260830062508 75 128 0.0 1.0 0.00 0.00 0.00 100 1015.0
20260830062408 75 0 0.0 1.0 0.00 0.00 0.00 100 1015.0
20260830062308 75 54 0.0 1.0 0.00 0.00 0.00 100 1015.0
20260830062207 75 0 0.0 1.0 0.00 0.00 0.00 100 1015.0
20260830062104 75 43 0.0 1.0 0.00 0.00 0.00 100 1015.0
20260830061955 75 0 0.0 1.0 0.00 0.00 0.00 100 1015.0
20260830061854 75 298 0.0 1.0 0.00 0.00 0.00 100 1015.0
20260830061754 75 327 0.0 1.0 0.00 0.00 0.00 100 1015.0
20260830061714 75 220 0.0 1.0 0.00 0.00 0.00 100 1015.0
20260830061654 75 0 0.0 1.0 0.00 0.00 0.00 100 1015.0
20260830061554 75 254 0.0 1.0 0.00 0.00 0.00 100 1015.0
20260830061452 75 243 0.0 1.0 0.00 0.00 0.00 100 1015.0
20260830061346 75 0 0.0 1.0 0.00 0.00 0.00 100 1015.0
20260830061245 75 0 0.0 1.0 0.00 0.00 0.00 100 1015.0
20260830061214 75 13 0.0 1.0 0.00 0.00 0.00 100 1015.0
20260830061142 75 0 0.0 1.0 0.00 0.00 0.00 100 1015.0
20260830061040 75 0 0.0 1.0 0.00 0.00 0.00 100 1015.0
20260830060939 75 0 0.0 1.0 0.00 0.00 0.00 100 1015.0
20260830060837 75 0 0.0 1.0 0.00 0.00 0.00 100 1015.0
20260830060733 75 0 0.0 1.0 0.00 0.00 0.00 100 1015.1
20260830060715 75 242 0.0 1.0 0.00 0.00 0.00 100 1015.1
20260830060631 75 352 0.0 1.0 0.00 0.00 0.00 100 1015.1
20260830060531 75 126 0.0 1.0 0.00 0.00 0.00 100 1015.1
20260830060431 75 22 0.0 1.0 0.00 0.00 0.00 100 1015.1
20260830060328 75 0 0.0 1.0 0.00 0.00 0.00 100 1015.1
20260830060225 75 0 0.0 1.0 0.00 0.00 0.00 100 1015.1
20260830060209 75 44 0.0 1.0 0.00 0.00 0.00 100 1015.1
20260830060122 75 292 0.0 1.0 0.00 0.00 0.00 100 1015.1
20260830060019 75 0 0.0 1.0 0.00 0.00 0.00 100 1015.1
20260830055916 75 317 0.0 1.0 0.00 0.00 0.00 100 1015.1
20260830055816 75 272 0.0 1.0 0.00 0.00 0.00 100 1015.1
20260830055708 75 0 0.0 1.0 0.00 0.00 0.00 100 1015.1
20260830055614 75 6 0.0 1.0 0.00 0.00 0.00 100 1015.1
20260830055510 75 309 0.0 1.0 0.00 0.00 0.00 100 1015.1
20260830055409 75 0 0.0 1.0 0.00 0.00 0.00 100 1015.1
20260830055307 75 273 0.0 1.0 0.00 0.00 0.00 100 1015.2
20260830055203 75 0 0.0 1.0 0.00 0.00 0.00 100 1015.2
20260830055107 75 314 0.0 1.0 0.00 0.00 0.00 100 1015.2
20260830055008 75 300 0.0 1.0 0.00 0.00 0.00 100 1015.2
20260830054907 75 0 0.0 1.0 0.00 0.00 0.00 100 1015.2
20260830054801 75 237 0.0 1.0 0.00 0.00 0.00 100 1015.2
20260830054657 75 0 0.0 1.0 0.00 0.00 0.00 100 1015.2
20260830054600 75 315 0.0 1.0 0.00 0.00 0.00 100 1015.3
20260830054458 75 102 0.0 1.0 0.00 0.00 0.00 100 1015.3
20260830054358 75 340 0.0 1.0 0.00 0.00 0.00 100 1015.3
20260830054258 75 0 0.0 1.0 0.00 0.00 0.00 100 1015.2
20260830054158 75 0 0.0 1.0 0.00 0.00 0.00 100 1015.2
20260830054055 75 0 0.0 1.0 0.00 0.00 0.00 100 1015.2
20260830053952 75 0 0.0 1.0 0.00 0.00 0.00 100 1015.2
20260830053852 75 0 0.0 1.0 0.00 0.00 0.00 100 1015.2
20260830053752 75 0 0.0 1.0 0.00 0.00 0.00 100 1015.2
20260830053653 75 248 0.0 1.0 0.00 0.00 0.00 100 1015.2
20260830053648 75 311 0.0 1.0 0.00 0.00 0.00 100 1015.2
20260830053552 75 0 0.0 1.0 0.00 0.00 0.00 99 1015.2
20260830053452 76 0 0.0 1.0 0.00 0.00 0.00 99 1015.2
20260830053347 76 44 0.0 1.0 0.00 0.00 0.00 99 1015.2
20260830053247 76 352 0.0 1.0 0.00 0.00 0.00 100 1015.2
20260830053136 76 0 0.0 1.0 0.00 0.00 0.00 100 1015.2
20260830053040 76 332 0.0 1.0 0.00 0.00 0.00 100 1015.2
20260830052941 76 0 0.0 1.0 0.00 0.00 0.00 100 1015.2
20260830052846 76 0 0.0 1.0 0.00 0.00 0.00 100 1015.2
20260830052742 76 0 0.0 1.0 0.00 0.00 0.00 99 1015.2
20260830052636 76 296 0.0 1.0 0.00 0.00 0.00 99 1015.2
20260830052541 76 0 0.0 1.0 0.00 0.00 0.00 99 1015.2
20260830052438 76 0 0.0 1.0 0.00 0.00 0.00 99 1015.2
20260830052338 76 55 0.0 1.0 0.00 0.00 0.00 99 1015.2
20260830052238 76 42 0.0 1.0 0.00 0.00 0.00 99 1015.2
20260830052139 76 325 0.0 1.0 0.00 0.00 0.00 99 1015.2
20260830052031 76 0 0.0 1.0 0.00 0.00 0.00 99 1015.2
20260830051931 76 0 0.0 1.0 0.00 0.00 0.00 99 1015.2
20260830051825 76 88 0.0 1.0 0.00 0.00 0.00 99 1015.2
20260830051726 76 355 0.0 1.0 0.00 0.00 0.00 99 1015.1
20260830051633 76 276 0.0 1.0 0.00 0.00 0.00 99 1015.1
20260830051614 76 287 0.0 1.0 0.00 0.00 0.00 99 1015.1
20260830051510 76 287 0.0 1.0 0.00 0.00 0.00 99 1015.1
20260830051409 76 323 0.0 1.0 0.00 0.00 0.00 99 1015.1
20260830051309 76 33 0.0 1.0 0.00 0.00 0.00 99 1015.2
20260830051209 76 0 0.0 1.0 0.00 0.00 0.00 99 1015.2
20260830051135 76 273 0.0 1.0 0.00 0.00 0.00 99 1015.2
20260830051109 76 0 0.0 1.0 0.00 0.00 0.00 99 1015.2
20260830051008 76 72 0.0 1.0 0.00 0.00 0.00 99 1015.2
20260830050908 76 343 0.0 1.0 0.00 0.00 0.00 99 1015.2
20260830050806 76 262 0.0 1.0 0.00 0.00 0.00 99 1015.2
20260830050705 76 0 0.0 1.0 0.00 0.00 0.00 99 1015.2
20260830050631 76 296 0.0 1.0 0.00 0.00 0.00 99 1015.2
20260830050605 76 306 0.0 1.0 0.00 0.00 0.00 99 1015.2
20260830050505 76 263 0.0 1.0 0.00 0.00 0.00 99 1015.2
20260830050404 76 0 0.0 1.0 0.00 0.00 0.00 99 1015.2
20260830050350 76 0 0.0 1.0 0.00 0.00 0.00 99 1015.2
20260830050305 76 239 0.0 1.0 0.00 0.00 0.00 99 1015.2
20260830050237 76 0 0.0 1.0 0.00 0.00 0.00 99 1015.2
20260830050002 76 286 0.0 1.0 0.00 0.00 0.00 99 1015.3
20260830045902 76 280 0.0 1.0 0.00 0.00 0.00 99 1015.3
20260830045747 76 0 0.0 1.0 0.00 0.00 0.00 99 1015.3
20260830045644 76 319 0.0 1.0 0.00 0.00 0.00 99 1015.3
20260830045630 76 309 0.0 1.0 0.00 0.00 0.00 99 1015.3
20260830045541 76 18 0.0 1.0 0.00 0.00 0.00 99 1015.3
20260830045441 76 258 0.0 1.0 0.00 0.00 0.00 99 1015.3
20260830045338 76 322 0.0 1.0 0.00 0.00 0.00 99 1015.3
20260830045235 76 14 0.0 1.0 0.00 0.00 0.00 99 1015.3
20260830045142 76 41 0.0 1.0 0.00 0.00 0.00 99 1015.3
20260830045014 76 337 0.0 1.0 0.00 0.00 0.00 99 1015.3
20260830044856 76 0 0.0 1.0 0.00 0.00 0.00 99 1015.3
20260830044756 76 0 0.0 1.0 0.00 0.00 0.00 99 1015.3
20260830044624 76 0 0.0 1.0 0.00 0.00 0.00 99 1015.3
20260830044550 76 59 0.0 1.0 0.00 0.00 0.00 99 1015.3
20260830044450 76 134 0.0 1.0 0.00 0.00 0.00 99 1015.3
20260830044350 76 0 0.0 1.0 0.00 0.00 0.00 99 1015.3
20260830044250 76 0 0.0 1.0 0.00 0.00 0.00 99 1015.3
20260830044119 76 0 0.0 1.0 0.00 0.00 0.00 99 1015.3
20260830044047 76 211 0.0 1.0 0.00 0.00 0.00 99 1015.3
20260830043947 76 0 0.0 1.0 0.00 0.00 0.00 98 1015.3
20260830043847 76 0 0.0 1.0 0.00 0.00 0.00 98 1015.3
20260830043748 76 8 0.0 1.0 0.00 0.00 0.00 98 1015.3
20260830043648 76 325 0.0 1.0 0.00 0.00 0.00 98 1015.3
20260830043620 76 31 0.0 1.0 0.00 0.00 0.00 98 1015.3
20260830043544 76 0 0.0 1.0 0.00 0.00 0.00 98 1015.3
20260830043439 76 0 0.0 1.0 0.00 0.00 0.00 98 1015.3
20260830043338 76 35 0.0 1.0 0.00 0.00 0.00 98 1015.3
20260830043238 76 336 0.0 1.0 0.00 0.00 0.00 98 1015.3
20260830043138 76 282 0.0 1.0 0.00 0.00 0.00 98 1015.3
20260830043117 76 305 0.0 1.0 0.00 0.00 0.00 98 1015.3
20260830043040 76 320 0.0 1.0 0.00 0.00 0.00 98 1015.4
20260830042935 76 295 0.0 1.0 0.00 0.00 0.00 98 1015.4
20260830042835 76 265 0.0 1.0 0.00 0.00 0.00 98 1015.4
20260830042735 76 304 0.0 1.0 0.00 0.00 0.00 98 1015.4
20260830042632 76 272 0.0 1.0 0.00 0.00 0.00 98 1015.4
20260830042616 76 0 0.0 1.0 0.00 0.00 0.00 98 1015.4
20260830042534 76 29 0.0 1.0 0.00 0.00 0.00 98 1015.4
20260830042433 76 354 0.0 1.0 0.00 0.00 0.00 98 1015.4
20260830042327 76 6 0.0 1.0 0.00 0.00 0.00 98 1015.4
20260830042205 76 266 0.0 1.0 0.00 0.00 0.00 98 1015.4
20260830042112 76 228 0.0 1.0 0.00 0.00 0.00 98 1015.4
20260830042106 76 315 0.0 1.0 0.00 0.00 0.00 98 1015.4
20260830042006 76 294 0.0 1.0 0.00 0.00 0.00 98 1015.4
20260830041905 76 288 0.0 1.0 0.00 0.00 0.00 98 1015.4
20260830041829 76 0 0.0 1.0 0.00 0.00 0.00 98 1015.4
20260830041802 76 349 0.0 1.0 0.00 0.00 0.00 98 1015.4
20260830041714 76 309 0.0 1.0 0.00 0.00 0.00 98 1015.4
20260830041550 76 236 0.0 1.0 0.00 0.00 0.00 98 1015.4
20260830041450 76 0 0.0 1.0 0.00 0.00 0.00 98 1015.4
20260830041348 76 235 0.0 1.0 0.00 0.00 0.00 98 1015.4
20260830041247 76 0 0.0 1.0 0.00 0.00 0.00 98 1015.4
20260830041145 76 0 0.0 1.0 0.00 0.00 0.00 98 1015.4
20260830041105 76 269 0.0 1.0 0.00 0.00 0.00 98 1015.4
20260830041044 76 227 0.0 1.0 0.00 0.00 0.00 98 1015.4
20260830040944 76 0 0.0 1.0 0.00 0.00 0.00 98 1015.4
20260830040839 76 0 0.0 1.0 0.00 0.00 0.00 98 1015.4
20260830040733 76 354 0.0 1.0 0.00 0.00 0.00 98 1015.4
20260830040629 76 268 0.0 1.0 0.00 0.00 0.00 98 1015.4
20260830040604 76 222 0.0 1.0 0.00 0.00 0.00 98 1015.4
20260830040520 76 0 0.0 1.0 0.00 0.00 0.00 98 1015.4
20260830040415 76 143 0.0 1.0 0.00 0.00 0.00 98 1015.4
20260830040315 76 299 0.0 1.0 0.00 0.00 0.00 98 1015.4
20260830040205 76 0 0.0 1.0 0.00 0.00 0.00 98 1015.4
20260830040101 76 246 0.0 1.0 0.00 0.00 0.00 97 1015.4
20260830040000 76 292 0.0 1.0 0.00 0.00 0.00 97 1015.4
20260830035857 76 270 0.0 1.0 0.00 0.00 0.00 97 1015.4
20260830035813 76 208 0.0 1.0 0.00 0.00 0.00 97 1015.3
20260830035739 76 0 0.0 1.0 0.00 0.00 0.00 97 1015.4
20260830035656 76 22 0.0 1.0 0.00 0.00 0.00 97 1015.3
20260830035536 76 342 0.0 1.0 0.00 0.00 0.00 97 1015.3
20260830035433 76 335 0.0 1.0 0.00 0.00 0.00 97 1015.3
20260830035330 76 0 0.0 1.0 0.00 0.00 0.00 97 1015.3
20260830035317 76 44 0.0 1.0 0.00 0.00 0.00 97 1015.3
20260830035224 76 0 0.0 1.0 0.00 0.00 0.00 97 1015.3
20260830035152 76 0 0.0 1.0 0.00 0.00 0.00 97 1015.3
20260830035020 76 0 0.0 1.0 0.00 0.00 0.00 97 1015.3
20260830034920 76 11 0.0 1.0 0.00 0.00 0.00 97 1015.3
20260830034818 76 229 0.0 1.0 0.00 0.00 0.00 97 1015.3
20260830034718 76 300 0.0 1.0 0.00 0.00 0.00 97 1015.3
20260830034612 76 299 0.0 1.0 0.00 0.00 0.00 97 1015.3
20260830034543 76 239 0.0 1.0 0.00 0.00 0.00 97 1015.3
20260830034510 76 0 0.0 1.0 0.00 0.00 0.00 96 1015.3
20260830034409 76 309 0.0 1.0 0.00 0.00 0.00 96 1015.3
20260830034311 77 0 0.0 1.0 0.00 0.00 0.00 96 1015.3
20260830034306 76 317 0.0 1.0 0.00 0.00 0.00 96 1015.3
20260830034159 77 311 0.0 1.0 0.00 0.00 0.00 96 1015.3
20260830034150 77 0 0.0 1.0 0.00 0.00 0.00 96 1015.3
20260830033957 77 0 0.0 1.0 0.00 0.00 0.00 96 1015.3
20260830033847 77 0 0.0 1.0 0.00 0.00 0.00 96 1015.3
20260830033805 77 35 0.0 1.0 0.00 0.00 0.00 96 1015.3
20260830033745 77 0 0.0 1.0 0.00 0.00 0.00 96 1015.4
20260830033656 77 359 0.0 1.0 0.00 0.00 0.00 96 1015.4
20260830033650 77 35 0.0 1.0 0.00 0.00 0.00 96 1015.3
20260830033437 77 316 0.0 1.0 0.00 0.00 0.00 96 1015.3
20260830033336 77 213 0.0 1.0 0.00 0.00 0.00 96 1015.3
20260830033233 77 297 0.0 1.0 0.00 0.00 0.00 96 1015.3
20260830033130 77 24 0.0 1.0 0.00 0.00 0.00 96 1015.3
20260830033035 77 31 0.0 1.0 0.00 0.00 0.00 96 1015.1
20260830033024 77 12 0.0 1.0 0.00 0.00 0.00 96 1015.1
20260830032924 77 68 0.0 1.0 0.00 0.00 0.00 96 1015.1
20260830032825 77 353 0.0 1.0 0.00 0.00 0.00 96 1015.1
20260830032724 77 0 0.0 1.0 0.00 0.00 0.00 96 1015.1
20260830032625 77 289 0.0 1.0 0.00 0.00 0.00 96 1015.1
20260830032535 77 0 0.0 1.0 0.00 0.00 0.00 96 1015.1
20260830032524 77 339 0.0 1.0 0.00 0.00 0.00 96 1015.1
20260830032423 77 73 0.0 1.0 0.00 0.00 0.00 96 1015.1
20260830032315 77 358 0.0 1.0 0.00 0.00 0.00 96 1015.1
20260830032200 77 215 0.0 1.0 0.00 0.00 0.00 96 1015.1
20260830032057 77 32 0.0 1.0 0.00 0.00 0.00 96 1015.1
20260830032037 77 328 0.0 1.0 0.00 0.00 0.00 96 1015.1
20260830031957 77 11 0.0 1.0 0.00 0.00 0.00 96 1015.1
20260830031854 77 24 0.0 1.0 0.00 0.00 0.00 96 1015.1
20260830031754 77 0 0.0 1.0 0.00 0.00 0.00 96 1015.1
20260830031654 77 0 0.0 1.0 0.00 0.00 0.00 96 1015.1
20260830031532 77 314 0.0 1.0 0.00 0.00 0.00 96 1015.0
20260830031455 77 259 0.0 1.0 0.00 0.00 0.00 96 1015.0
20260830031351 77 300 0.0 1.0 0.00 0.00 0.00 96 1015.0
20260830031252 77 275 0.0 1.0 0.00 0.00 0.00 96 1015.0
20260830031152 77 324 0.0 1.0 0.00 0.00 0.00 95 1015.0
20260830031049 77 8 0.0 1.0 0.00 0.00 0.00 95 1015.0
20260830031032 77 341 0.0 1.0 0.00 0.00 0.00 95 1015.0
20260830030948 77 0 0.0 1.0 0.00 0.00 0.00 95 1015.0
20260830030848 77 286 0.0 1.0 0.00 0.00 0.00 95 1015.0
20260830030804 77 1 0.0 1.0 0.00 0.00 0.00 95 1015.0
20260830030745 77 0 0.0 1.0 0.00 0.00 0.00 95 1015.0
20260830030643 77 267 0.0 1.0 0.00 0.00 0.00 95 1015.0
20260830030638 77 0 0.0 1.0 0.00 0.00 0.00 95 1015.0
20260830030437 77 0 0.0 1.0 0.00 0.00 0.00 95 1015.0
20260830030336 77 0 0.0 1.0 0.00 0.00 0.00 95 1015.0
20260830030225 77 0 0.0 1.0 0.00 0.00 0.00 95 1015.0
20260830030122 77 250 0.0 1.0 0.00 0.00 0.00 95 1015.0
20260830030020 78 359 0.0 1.0 0.00 0.00 0.00 95 1015.0
20260830025901 78 0 0.0 1.0 0.00 0.00 0.00 95 1015.0
20260830025800 78 0 0.0 1.0 0.00 0.00 0.00 94 1015.0
20260830025658 78 14 0.0 1.0 0.00 0.00 0.00 94 1015.0
20260830025555 78 319 0.0 1.0 0.00 0.00 0.00 94 1015.0
20260830025520 78 25 0.0 1.0 0.00 0.00 0.00 94 1015.0
20260830025446 78 334 0.0 1.0 0.00 0.00 0.00 94 1015.0
20260830025346 78 23 0.0 1.0 0.00 0.00 0.00 94 1015.0
20260830025246 78 199 0.0 1.0 0.00 0.00 0.00 94 1015.0
20260830025134 78 292 0.0 1.0 0.00 0.00 0.00 94 1015.0
20260830025022 78 41 0.0 2.0 0.00 0.00 0.00 94 1014.9
20260830024913 78 0 0.0 2.0 0.00 0.00 0.00 94 1014.9
20260830024811 78 16 0.0 2.0 0.00 0.00 0.00 94 1014.9
20260830024712 78 329 0.0 2.0 0.00 0.00 0.00 94 1014.9
20260830024606 78 206 0.0 2.0 0.00 0.00 0.00 94 1014.9
20260830024507 78 0 0.0 2.0 0.00 0.00 0.00 94 1014.9
20260830024407 78 19 0.0 2.0 0.00 0.00 0.00 94 1014.9
20260830024302 78 21 0.0 2.0 0.00 0.00 0.00 94 1014.9
20260830024225 78 2 0.0 1.0 0.00 0.00 0.00 94 1014.9
20260830024159 78 39 0.0 2.0 0.00 0.00 0.00 94 1014.9
20260830024118 78 18 0.0 1.0 0.00 0.00 0.00 94 1014.9
20260830023948 78 350 0.0 1.0 0.00 0.00 0.00 94 1014.9
20260830023846 78 34 0.0 1.0 0.00 0.00 0.00 94 1014.9
20260830023746 78 28 0.0 1.0 0.00 0.00 0.00 94 1014.9
20260830023649 78 335 0.0 1.0 0.00 0.00 0.00 94 1014.9
20260830023546 78 15 0.0 1.0 0.00 0.00 0.00 93 1014.8
20260830023503 78 0 0.0 1.0 0.00 0.00 0.00 93 1014.8
20260830023446 78 337 0.0 1.0 0.00 0.00 0.00 93 1014.8
20260830023345 78 249 0.0 1.0 0.00 0.00 0.00 93 1014.8
20260830023242 78 295 0.0 1.0 0.00 0.00 0.00 93 1014.8
20260830023135 78 238 0.0 1.0 0.00 0.00 0.00 93 1014.8
20260830023029 78 248 0.0 1.0 0.00 0.00 0.00 93 1014.8
20260830022957 78 284 0.0 1.0 0.00 0.00 0.00 93 1014.8
20260830022926 78 0 0.0 1.0 0.00 0.00 0.00 93 1014.8
20260830022819 78 0 0.0 1.0 0.00 0.00 0.00 93 1014.8
20260830022717 79 0 0.0 1.0 0.00 0.00 0.00 93 1014.8
20260830022610 79 205 0.0 1.0 0.00 0.00 0.00 93 1014.8